Wetterdaten: Mittwoch, 21.10.2020
Datum Zeit Temp. Aussen Temp. o. S. Temp +5cm Feuchte Auss Luftdruck Regen Sonnenschein Regendauer Solar Windben Empfang
21.10.2020 00:00 12,0 C 10,6 C 10,0 C 97 % 1008,8 hPa 0,0 l/m 0 min 2 min 0 W/m 12,9 km/h (3 Bft) 100,00 %
21.10.2020 00:02 12,0 C 10,6 C 10,0 C 97 % 1008,8 hPa 0,0 l/m 0 min 2 min 0 W/m 6,4 km/h (2 Bft) 97,56 %
21.10.2020 00:04 12,0 C 10,6 C 10,0 C 97 % 1008,8 hPa 0,2 l/m 0 min 2 min 0 W/m 16,1 km/h (3 Bft) 100,00 %
21.10.2020 00:08 12,0 C 10,6 C 10,0 C 97 % 1008,7 hPa 0,0 l/m 0 min 4 min 0 W/m 12,9 km/h (3 Bft) 100,00 %
21.10.2020 00:10 12,0 C 10,6 C 10,0 C 97 % 1008,8 hPa 0,0 l/m 0 min 2 min 0 W/m 16,1 km/h (3 Bft) 97,83 %
21.10.2020 00:12 12,0 C 10,6 C 10,0 C 97 % 1008,7 hPa 0,0 l/m 0 min 2 min 0 W/m 6,4 km/h (2 Bft) 100,00 %
21.10.2020 00:14 12,0 C 10,6 C 10,0 C 98 % 1008,7 hPa 0,0 l/m 0 min 2 min 0 W/m 12,9 km/h (3 Bft) 97,87 %
21.10.2020 00:16 11,9 C 10,6 C 10,0 C 98 % 1008,7 hPa 0,0 l/m 0 min 0 min 0 W/m 12,9 km/h (3 Bft) 100,00 %
21.10.2020 00:18 12,0 C 10,6 C 10,0 C 98 % 1008,7 hPa 0,0 l/m 0 min 0 min 0 W/m 6,4 km/h (2 Bft) 100,00 %
21.10.2020 00:20 11,9 C 10,6 C 10,0 C 98 % 1008,7 hPa 0,0 l/m 0 min 0 min 0 W/m 16,1 km/h (3 Bft) 100,00 %
21.10.2020 00:22 11,9 C 10,6 C 10,0 C 98 % 1008,6 hPa 0,0 l/m 0 min 2 min 0 W/m 9,7 km/h (2 Bft) 97,83 %
21.10.2020 00:24 11,9 C 10,6 C 10,0 C 98 % 1008,6 hPa 0,0 l/m 0 min 2 min 0 W/m 19,3 km/h (3 Bft) 100,00 %
21.10.2020 00:26 11,9 C 10,6 C 10,0 C 98 % 1008,6 hPa 0,0 l/m 0 min 2 min 0 W/m 6,4 km/h (2 Bft) 100,00 %
21.10.2020 00:28 11,9 C 10,6 C 10,0 C 98 % 1008,5 hPa 0,0 l/m 0 min 0 min 0 W/m 12,9 km/h (3 Bft) 100,00 %
21.10.2020 00:30 11,9 C 10,6 C 10,0 C 98 % 1008,5 hPa 0,0 l/m 0 min 2 min 0 W/m 6,4 km/h (2 Bft) 100,00 %
21.10.2020 00:32 11,9 C 10,6 C 10,0 C 98 % 1008,4 hPa 0,0 l/m 0 min 0 min 0 W/m 6,4 km/h (2 Bft) 100,00 %
21.10.2020 00:34 11,9 C 10,6 C 10,0 C 98 % 1008,4 hPa 0,0 l/m 0 min 0 min 0 W/m 16,1 km/h (3 Bft) 95,65 %
21.10.2020 00:36 11,9 C 10,6 C 10,0 C 98 % 1008,3 hPa 0,0 l/m 0 min 2 min 0 W/m 12,9 km/h (3 Bft) 95,74 %
21.10.2020 00:38 11,9 C 10,6 C 10,0 C 98 % 1008,2 hPa 0,0 l/m 0 min 2 min 0 W/m 12,9 km/h (3 Bft) 100,00 %
21.10.2020 00:40 11,9 C 10,6 C 10,0 C 98 % 1008,3 hPa 0,0 l/m 0 min 2 min 0 W/m 12,9 km/h (3 Bft) 97,87 %
21.10.2020 00:42 11,9 C 10,6 C 10,0 C 98 % 1008,2 hPa 0,0 l/m 0 min 2 min 0 W/m 19,3 km/h (3 Bft) 94,55 %
21.10.2020 00:44 11,9 C 10,6 C 10,0 C 98 % 1008,3 hPa 0,0 l/m 0 min 2 min 0 W/m 12,9 km/h (3 Bft) 97,83 %
21.10.2020 00:46 11,9 C 10,6 C 10,0 C 98 % 1008,2 hPa 0,0 l/m 0 min 2 min 0 W/m 12,9 km/h (3 Bft) 96,00 %
21.10.2020 00:48 11,8 C 10,6 C 10,0 C 98 % 1008,2 hPa 0,0 l/m 0 min 2 min 0 W/m 12,9 km/h (3 Bft) 93,75 %
21.10.2020 00:50 11,8 C 10,6 C 10,0 C 98 % 1008,2 hPa 0,2 l/m 0 min 2 min 0 W/m 3,2 km/h (1 Bft) 94,29 %
21.10.2020 00:52 11,8 C 10,6 C 10,0 C 98 % 1008,2 hPa 0,0 l/m 0 min 2 min 0 W/m 6,4 km/h (2 Bft) 93,62 %
21.10.2020 00:54 11,8 C 10,6 C 10,0 C 98 % 1008,2 hPa 0,0 l/m 0 min 2 min 0 W/m 3,2 km/h (1 Bft) 95,74 %
21.10.2020 00:56 11,8 C 10,6 C 10,0 C 98 % 1008,2 hPa 0,0 l/m 0 min 2 min 0 W/m 12,9 km/h (3 Bft) 95,74 %
21.10.2020 00:58 11,8 C 10,6 C 10,0 C 98 % 1008,1 hPa 0,0 l/m 0 min 2 min 0 W/m 16,1 km/h (3 Bft) 95,74 %
21.10.2020 01:00 11,8 C 10,6 C 10,0 C 98 % 1008,1 hPa 0,0 l/m 0 min 2 min 0 W/m 16,1 km/h (3 Bft) 93,48 %
21.10.2020 01:02 11,8 C 10,6 C 10,0 C 98 % 1008,1 hPa 0,0 l/m 0 min 2 min 0 W/m 12,9 km/h (3 Bft) 93,62 %
21.10.2020 01:04 11,9 C 10,6 C 10,0 C 98 % 1008,1 hPa 0,0 l/m 0 min 2 min 0 W/m 12,9 km/h (3 Bft) 92,59 %
21.10.2020 01:06 11,9 C 10,6 C 10,0 C 98 % 1008,1 hPa 0,2 l/m 0 min 2 min 0 W/m 12,9 km/h (3 Bft) 94,00 %
21.10.2020 01:08 11,9 C 10,6 C 10,0 C 98 % 1008,1 hPa 0,0 l/m 0 min 2 min 0 W/m 16,1 km/h (3 Bft) 93,75 %
21.10.2020 01:10 11,9 C 10,6 C 10,0 C 98 % 1008,1 hPa 0,0 l/m 0 min 2 min 0 W/m 6,4 km/h (2 Bft) 95,74 %
21.10.2020 01:12 11,9 C 10,6 C 10,0 C 98 % 1008,0 hPa 0,0 l/m 0 min 2 min 0 W/m 12,9 km/h (3 Bft) 88,57 %
21.10.2020 01:14 11,9 C 10,6 C 10,0 C 98 % 1008,0 hPa 0,0 l/m 0 min 2 min 0 W/m 6,4 km/h (2 Bft) 95,74 %
21.10.2020 01:16 11,9 C 10,6 C 10,0 C 98 % 1008,0 hPa 0,0 l/m 0 min 2 min 0 W/m 16,1 km/h (3 Bft) 95,74 %
21.10.2020 01:18 11,9 C 10,6 C 10,0 C 98 % 1008,0 hPa 0,0 l/m 0 min 2 min 0 W/m 6,4 km/h (2 Bft) 94,44 %
21.10.2020 01:20 11,8 C 10,6 C 10,0 C 98 % 1007,9 hPa 0,0 l/m 0 min 2 min 0 W/m 6,4 km/h (2 Bft) 97,83 %
21.10.2020 01:22 11,9 C 10,6 C 10,0 C 98 % 1007,9 hPa 0,0 l/m 0 min 2 min 0 W/m 16,1 km/h (3 Bft) 97,87 %
21.10.2020 01:24 11,9 C 10,6 C 10,0 C 98 % 1007,9 hPa 0,0 l/m 0 min 2 min 0 W/m 16,1 km/h (3 Bft) 95,74 %
21.10.2020 01:26 11,9 C 10,6 C 10,0 C 98 % 1008,0 hPa 0,0 l/m 0 min 2 min 0 W/m 12,9 km/h (3 Bft) 96,00 %
21.10.2020 01:28 11,9 C 10,6 C 10,0 C 98 % 1008,0 hPa 0,2 l/m 0 min 2 min 0 W/m 16,1 km/h (3 Bft) 97,96 %
21.10.2020 01:30 11,9 C 10,6 C 10,0 C 98 % 1008,1 hPa 0,0 l/m 0 min 2 min 0 W/m 12,9 km/h (3 Bft) 97,83 %
21.10.2020 01:32 11,9 C 10,6 C 10,0 C 98 % 1008,0 hPa 0,0 l/m 0 min 2 min 0 W/m 16,1 km/h (3 Bft) 97,87 %
21.10.2020 01:34 11,9 C 10,6 C 10,0 C 98 % 1008,0 hPa 0,0 l/m 0 min 2 min 0 W/m 16,1 km/h (3 Bft) 97,14 %
21.10.2020 01:36 11,9 C 10,6 C 10,0 C 98 % 1008,0 hPa 0,2 l/m 0 min 2 min 0 W/m 16,1 km/h (3 Bft) 95,74 %
21.10.2020 01:38 11,9 C 10,6 C 10,0 C 98 % 1008,0 hPa 0,0 l/m 0 min 2 min 0 W/m 19,3 km/h (3 Bft) 95,74 %
21.10.2020 01:40 11,9 C 10,6 C 10,0 C 98 % 1008,0 hPa 0,0 l/m 0 min 2 min 0 W/m 12,9 km/h (3 Bft) 95,74 %
21.10.2020 01:42 11,9 C 10,6 C 10,0 C 98 % 1007,9 hPa 0,0 l/m 0 min 2 min 0 W/m 6,4 km/h (2 Bft) 97,87 %
21.10.2020 01:44 11,9 C 11,1 C 10,0 C 98 % 1008,0 hPa 0,0 l/m 0 min 2 min 0 W/m 16,1 km/h (3 Bft) 95,74 %
21.10.2020 01:46 11,9 C 11,1 C 10,0 C 98 % 1007,9 hPa 0,0 l/m 0 min 2 min 0 W/m 16,1 km/h (3 Bft) 95,65 %
21.10.2020 01:48 11,9 C 11,1 C 10,0 C 98 % 1008,0 hPa 0,0 l/m 0 min 2 min 0 W/m 12,9 km/h (3 Bft) 94,44 %
21.10.2020 01:50 11,9 C 11,1 C 10,0 C 98 % 1007,9 hPa 0,2 l/m 0 min 2 min 0 W/m 9,7 km/h (2 Bft) 95,74 %
21.10.2020 01:52 11,9 C 11,1 C 10,0 C 98 % 1007,9 hPa 0,0 l/m 0 min 2 min 0 W/m 12,9 km/h (3 Bft) 95,74 %
21.10.2020 01:54 11,9 C 11,1 C 10,0 C 98 % 1007,9 hPa 0,0 l/m 0 min 2 min 0 W/m 12,9 km/h (3 Bft) 95,92 %
21.10.2020 01:56 11,9 C 11,1 C 10,0 C 98 % 1007,8 hPa 0,0 l/m 0 min 2 min 0 W/m 16,1 km/h (3 Bft) 97,96 %
21.10.2020 01:58 11,9 C 11,1 C 10,0 C 98 % 1007,8 hPa 0,0 l/m 0 min 2 min 0 W/m 16,1 km/h (3 Bft) 97,87 %
21.10.2020 02:00 11,9 C 11,1 C 10,0 C 98 % 1007,8 hPa 0,0 l/m 0 min 2 min 0 W/m 9,7 km/h (2 Bft) 94,29 %
21.10.2020 02:02 11,9 C 11,1 C 10,0 C 99 % 1007,7 hPa 0,0 l/m 0 min 2 min 0 W/m 12,9 km/h (3 Bft) 95,74 %
21.10.2020 02:04 11,9 C 11,1 C 10,0 C 99 % 1007,7 hPa 0,0 l/m 0 min 2 min 0 W/m 9,7 km/h (2 Bft) 95,74 %
21.10.2020 02:06 11,9 C 11,1 C 10,0 C 99 % 1007,7 hPa 0,0 l/m 0 min 0 min 0 W/m 12,9 km/h (3 Bft) 98,15 %
21.10.2020 02:08 11,9 C 11,1 C 10,0 C 98 % 1007,7 hPa 0,0 l/m 0 min 0 min 0 W/m 12,9 km/h (3 Bft) 95,65 %
21.10.2020 02:10 11,9 C 11,1 C 10,0 C 99 % 1007,7 hPa 0,0 l/m 0 min 0 min 0 W/m 12,9 km/h (3 Bft) 96,00 %
21.10.2020 02:12 11,9 C 11,1 C 10,0 C 98 % 1007,7 hPa 0,0 l/m 0 min 0 min 0 W/m 16,1 km/h (3 Bft) 97,87 %
21.10.2020 02:14 11,9 C 11,1 C 10,0 C 99 % 1007,7 hPa 0,0 l/m 0 min 0 min 0 W/m 19,3 km/h (3 Bft) 95,74 %
21.10.2020 02:16 11,9 C 11,1 C 10,0 C 99 % 1007,7 hPa 0,0 l/m 0 min 0 min 0 W/m 16,1 km/h (3 Bft) 95,74 %
21.10.2020 02:18 11,9 C 11,1 C 10,0 C 99 % 1007,7 hPa 0,0 l/m 0 min 0 min 0 W/m 12,9 km/h (3 Bft) 97,83 %
21.10.2020 02:20 11,9 C 11,1 C 10,0 C 99 % 1007,6 hPa 0,0 l/m 0 min 0 min 0 W/m 12,9 km/h (3 Bft) 97,96 %
21.10.2020 02:22 11,9 C 11,1 C 10,0 C 98 % 1007,6 hPa 0,0 l/m 0 min 0 min 0 W/m 22,5 km/h (4 Bft) 97,14 %
21.10.2020 02:24 11,9 C 11,1 C 10,0 C 99 % 1007,6 hPa 0,0 l/m 0 min 0 min 0 W/m 16,1 km/h (3 Bft) 97,87 %
21.10.2020 02:26 11,9 C 11,1 C 10,0 C 99 % 1007,6 hPa 0,0 l/m 0 min 0 min 0 W/m 12,9 km/h (3 Bft) 98,15 %
21.10.2020 02:28 11,9 C 11,1 C 10,0 C 99 % 1007,5 hPa 0,0 l/m 0 min 0 min 0 W/m 19,3 km/h (3 Bft) 97,87 %
21.10.2020 02:30 11,9 C 11,1 C 10,0 C 99 % 1007,5 hPa 0,0 l/m 0 min 0 min 0 W/m 12,9 km/h (3 Bft) 97,96 %
21.10.2020 02:32 11,9 C 11,1 C 10,0 C 99 % 1007,5 hPa 0,0 l/m 0 min 0 min 0 W/m 12,9 km/h (3 Bft) 100,00 %
21.10.2020 02:34 11,9 C 11,1 C 10,0 C 99 % 1007,4 hPa 0,0 l/m 0 min 0 min 0 W/m 19,3 km/h (3 Bft) 100,00 %
21.10.2020 02:36 11,9 C 11,1 C 10,0 C 99 % 1007,4 hPa 0,0 l/m 0 min 2 min 0 W/m 12,9 km/h (3 Bft) 100,00 %
21.10.2020 02:38 11,9 C 11,1 C 10,0 C 99 % 1007,4 hPa 0,0 l/m 0 min 0 min 0 W/m 19,3 km/h (3 Bft) 100,00 %
21.10.2020 02:40 11,9 C 11,1 C 10,0 C 99 % 1007,4 hPa 0,0 l/m 0 min 2 min 0 W/m 16,1 km/h (3 Bft) 100,00 %
21.10.2020 02:42 11,9 C 11,1 C 10,0 C 99 % 1007,5 hPa 0,0 l/m 0 min 0 min 0 W/m 16,1 km/h (3 Bft) 100,00 %
21.10.2020 02:44 11,9 C 11,1 C 10,0 C 99 % 1007,4 hPa 0,0 l/m 0 min 0 min 0 W/m 16,1 km/h (3 Bft) 100,00 %
21.10.2020 02:46 11,9 C 11,1 C 10,0 C 99 % 1007,3 hPa 0,0 l/m 0 min 0 min 0 W/m 12,9 km/h (3 Bft) 98,15 %
21.10.2020 02:48 11,9 C 11,1 C 10,0 C 99 % 1007,4 hPa 0,0 l/m 0 min 0 min 0 W/m 12,9 km/h (3 Bft) 100,00 %
21.10.2020 02:50 11,9 C 11,1 C 10,0 C 99 % 1007,4 hPa 0,0 l/m 0 min 0 min 0 W/m 12,9 km/h (3 Bft) 100,00 %
21.10.2020 02:52 11,9 C 11,1 C 10,0 C 99 % 1007,4 hPa 0,0 l/m 0 min 0 min 0 W/m 19,3 km/h (3 Bft) 100,00 %
21.10.2020 02:54 11,9 C 11,1 C 10,0 C 99 % 1007,3 hPa 0,0 l/m 0 min 0 min 0 W/m 6,4 km/h (2 Bft) 100,00 %
21.10.2020 02:56 11,9 C 11,1 C 10,0 C 99 % 1007,2 hPa 0,0 l/m 0 min 0 min 0 W/m 16,1 km/h (3 Bft) 100,00 %
21.10.2020 02:58 11,9 C 11,1 C 10,0 C 99 % 1007,2 hPa 0,0 l/m 0 min 0 min 0 W/m 12,9 km/h (3 Bft) 100,00 %
21.10.2020 03:00 11,9 C 11,1 C 10,0 C 99 % 1007,2 hPa 0,0 l/m 0 min 0 min 0 W/m 12,9 km/h (3 Bft) 100,00 %
21.10.2020 03:02 11,9 C 11,1 C 10,0 C 99 % 1007,2 hPa 0,0 l/m 0 min 0 min 0 W/m 12,9 km/h (3 Bft) 100,00 %
21.10.2020 03:04 12,0 C 11,1 C 10,0 C 99 % 1007,2 hPa 0,0 l/m 0 min 0 min 0 W/m 16,1 km/h (3 Bft) 100,00 %
21.10.2020 03:06 11,9 C 11,1 C 10,0 C 99 % 1007,1 hPa 0,0 l/m 0 min 0 min 0 W/m 19,3 km/h (3 Bft) 97,87 %
21.10.2020 03:08 11,9 C 11,1 C 10,0 C 99 % 1007,1 hPa 0,0 l/m 0 min 0 min 0 W/m 19,3 km/h (3 Bft) 100,00 %
21.10.2020 03:10 12,0 C 11,1 C 10,0 C 99 % 1007,1 hPa 0,0 l/m 0 min 2 min 0 W/m 19,3 km/h (3 Bft) 97,87 %
21.10.2020 03:12 11,9 C 11,1 C 10,0 C 99 % 1007,1 hPa 0,0 l/m 0 min 2 min 0 W/m 19,3 km/h (3 Bft) 100,00 %
21.10.2020 03:14 11,9 C 11,1 C 10,0 C 99 % 1007,1 hPa 0,2 l/m 0 min 0 min 0 W/m 19,3 km/h (3 Bft) 100,00 %
21.10.2020 03:16 12,0 C 11,1 C 10,0 C 99 % 1007,1 hPa 0,0 l/m 0 min 0 min 0 W/m 16,1 km/h (3 Bft) 100,00 %
21.10.2020 03:18 11,9 C 11,1 C 10,0 C 99 % 1007,1 hPa 0,0 l/m 0 min 0 min 0 W/m 19,3 km/h (3 Bft) 95,74 %
21.10.2020 03:20 12,0 C 11,1 C 10,0 C 99 % 1007,1 hPa 0,0 l/m 0 min 0 min 0 W/m 6,4 km/h (2 Bft) 96,00 %
21.10.2020 03:22 11,9 C 11,1 C 10,0 C 99 % 1007,1 hPa 0,0 l/m 0 min 0 min 0 W/m 0,0 km/h (0 Bft) 97,87 %
21.10.2020 03:24 12,0 C 11,1 C 10,0 C 99 % 1007,1 hPa 0,0 l/m 0 min 0 min 0 W/m 9,7 km/h (2 Bft) 97,87 %
21.10.2020 03:26 11,9 C 11,1 C 10,0 C 99 % 1007,0 hPa 0,0 l/m 0 min 0 min 0 W/m 6,4 km/h (2 Bft) 97,96 %
21.10.2020 03:28 11,9 C 11,1 C 10,0 C 99 % 1007,1 hPa 0,0 l/m 0 min 0 min 0 W/m 0,0 km/h (0 Bft) 97,14 %
21.10.2020 03:30 11,9 C 11,1 C 10,0 C 99 % 1007,0 hPa 0,0 l/m 0 min 0 min 0 W/m 19,3 km/h (3 Bft) 97,87 %
21.10.2020 03:32 11,9 C 11,1 C 10,0 C 99 % 1007,0 hPa 0,0 l/m 0 min 0 min 0 W/m 16,1 km/h (3 Bft) 98,11 %
21.10.2020 03:34 11,9 C 11,1 C 10,0 C 99 % 1007,1 hPa 0,0 l/m 0 min 0 min 0 W/m 19,3 km/h (3 Bft) 97,87 %
21.10.2020 03:36 11,9 C 11,1 C 10,0 C 99 % 1007,0 hPa 0,0 l/m 0 min 0 min 0 W/m 12,9 km/h (3 Bft) 95,74 %
21.10.2020 03:38 11,9 C 11,1 C 10,0 C 99 % 1007,0 hPa 0,0 l/m 0 min 0 min 0 W/m 3,2 km/h (1 Bft) 97,87 %
21.10.2020 03:40 11,9 C 11,1 C 10,0 C 99 % 1007,0 hPa 0,0 l/m 0 min 0 min 0 W/m 12,9 km/h (3 Bft) 97,96 %
21.10.2020 03:42 11,9 C 11,1 C 10,0 C 99 % 1007,0 hPa 0,0 l/m 0 min 0 min 0 W/m 12,9 km/h (3 Bft) 95,74 %
21.10.2020 03:44 11,9 C 11,1 C 10,0 C 99 % 1006,9 hPa 0,0 l/m 0 min 2 min 0 W/m 12,9 km/h (3 Bft) 97,96 %
21.10.2020 03:46 11,9 C 11,1 C 10,0 C 99 % 1006,9 hPa 0,0 l/m 0 min 2 min 0 W/m 12,9 km/h (3 Bft) 97,87 %
21.10.2020 03:48 11,9 C 11,1 C 10,0 C 99 % 1006,8 hPa 0,0 l/m 0 min 2 min 0 W/m 6,4 km/h (2 Bft) 97,87 %
21.10.2020 03:50 11,9 C 11,1 C 10,0 C 99 % 1006,8 hPa 0,0 l/m 0 min 2 min 0 W/m 0,0 km/h (0 Bft) 97,83 %
21.10.2020 03:52 11,9 C 11,1 C 10,0 C 99 % 1006,8 hPa 0,0 l/m 0 min 2 min 0 W/m 16,1 km/h (3 Bft) 97,22 %
21.10.2020 03:54 11,9 C 11,1 C 10,0 C 99 % 1006,7 hPa 0,0 l/m 0 min 2 min 0 W/m 16,1 km/h (3 Bft) 97,83 %
21.10.2020 03:56 11,9 C 11,1 C 10,0 C 99 % 1006,7 hPa 0,0 l/m 0 min 2 min 0 W/m 16,1 km/h (3 Bft) 93,62 %
21.10.2020 03:58 11,9 C 11,1 C 10,0 C 99 % 1006,7 hPa 0,0 l/m 0 min 2 min 0 W/m 9,7 km/h (2 Bft) 98,15 %
21.10.2020 04:00 11,9 C 10,6 C 10,0 C 99 % 1006,6 hPa 0,0 l/m 0 min 2 min 0 W/m 16,1 km/h (3 Bft) 95,74 %
21.10.2020 04:02 11,9 C 10,6 C 10,0 C 99 % 1006,6 hPa 0,0 l/m 0 min 2 min 0 W/m 3,2 km/h (1 Bft) 100,00 %
21.10.2020 04:04 11,9 C 10,6 C 10,0 C 99 % 1006,5 hPa 0,0 l/m 0 min 2 min 0 W/m 22,5 km/h (4 Bft) 100,00 %
21.10.2020 04:06 11,9 C 10,6 C 10,0 C 99 % 1006,5 hPa 0,0 l/m 0 min 2 min 0 W/m 16,1 km/h (3 Bft) 100,00 %
21.10.2020 04:08 11,9 C 10,6 C 10,0 C 99 % 1006,5 hPa 0,0 l/m 0 min 2 min 0 W/m 19,3 km/h (3 Bft) 97,87 %
21.10.2020 04:10 11,9 C 10,6 C 10,0 C 99 % 1006,5 hPa 0,0 l/m 0 min 2 min 0 W/m 6,4 km/h (2 Bft) 97,14 %
21.10.2020 04:12 11,9 C 10,6 C 10,0 C 99 % 1006,4 hPa 0,0 l/m 0 min 2 min 0 W/m 12,9 km/h (3 Bft) 98,15 %
21.10.2020 04:14 11,9 C 10,6 C 10,0 C 99 % 1006,4 hPa 0,0 l/m 0 min 2 min 0 W/m 12,9 km/h (3 Bft) 100,00 %
21.10.2020 04:16 11,9 C 10,6 C 10,0 C 99 % 1006,4 hPa 0,0 l/m 0 min 2 min 0 W/m 19,3 km/h (3 Bft) 100,00 %
21.10.2020 04:18 11,8 C 10,6 C 10,0 C 99 % 1006,4 hPa 0,0 l/m 0 min 2 min 0 W/m 12,9 km/h (3 Bft) 100,00 %
21.10.2020 04:20 11,9 C 10,6 C 10,0 C 99 % 1006,4 hPa 0,0 l/m 0 min 2 min 0 W/m 6,4 km/h (2 Bft) 97,96 %
21.10.2020 04:22 11,8 C 10,6 C 10,0 C 99 % 1006,4 hPa 0,0 l/m 0 min 2 min 0 W/m 16,1 km/h (3 Bft) 97,14 %
21.10.2020 04:24 11,8 C 10,6 C 10,0 C 99 % 1006,3 hPa 0,0 l/m 0 min 0 min 0 W/m 16,1 km/h (3 Bft) 100,00 %
21.10.2020 04:26 11,8 C 10,6 C 10,0 C 99 % 1006,4 hPa 0,0 l/m 0 min 0 min 0 W/m 9,7 km/h (2 Bft) 100,00 %
21.10.2020 04:28 11,8 C 10,6 C 10,0 C 99 % 1006,3 hPa 0,0 l/m 0 min 0 min 0 W/m 0,0 km/h (0 Bft) 100,00 %
21.10.2020 04:30 11,8 C 10,6 C 10,0 C 99 % 1006,3 hPa 0,0 l/m 0 min 2 min 0 W/m 3,2 km/h (1 Bft) 98,00 %
21.10.2020 04:32 11,8 C 10,6 C 10,0 C 99 % 1006,3 hPa 0,0 l/m 0 min 2 min 0 W/m 12,9 km/h (3 Bft) 100,00 %
21.10.2020 04:34 11,8 C 10,6 C 10,0 C 99 % 1006,2 hPa 0,0 l/m 0 min 0 min 0 W/m 12,9 km/h (3 Bft) 97,87 %
21.10.2020 04:36 11,8 C 10,6 C 10,0 C 99 % 1006,2 hPa 0,0 l/m 0 min 0 min 0 W/m 0,0 km/h (0 Bft) 97,92 %
21.10.2020 04:38 11,8 C 10,6 C 10,0 C 99 % 1006,2 hPa 0,0 l/m 0 min 2 min 0 W/m 9,7 km/h (2 Bft) 97,87 %
21.10.2020 04:40 11,8 C 10,6 C 10,0 C 99 % 1006,1 hPa 0,0 l/m 0 min 2 min 0 W/m 6,4 km/h (2 Bft) 97,22 %
21.10.2020 04:42 11,8 C 10,6 C 10,0 C 99 % 1006,1 hPa 0,0 l/m 0 min 2 min 0 W/m 3,2 km/h (1 Bft) 98,11 %
21.10.2020 04:44 11,8 C 10,6 C 10,0 C 99 % 1006,1 hPa 0,0 l/m 0 min 2 min 0 W/m 12,9 km/h (3 Bft) 97,87 %
21.10.2020 04:46 11,8 C 10,6 C 10,0 C 99 % 1006,1 hPa 0,0 l/m 0 min 2 min 0 W/m 12,9 km/h (3 Bft) 98,00 %
21.10.2020 04:48 11,8 C 10,6 C 10,0 C 99 % 1006,1 hPa 0,0 l/m 0 min 2 min 0 W/m 12,9 km/h (3 Bft) 97,83 %
21.10.2020 04:50 11,8 C 10,6 C 10,0 C 99 % 1006,1 hPa 0,2 l/m 0 min 2 min 0 W/m 6,4 km/h (2 Bft) 97,87 %
21.10.2020 04:52 11,8 C 10,6 C 10,0 C 99 % 1006,1 hPa 0,0 l/m 0 min 2 min 0 W/m 6,4 km/h (2 Bft) 95,74 %
21.10.2020 04:54 11,8 C 10,6 C 10,0 C 99 % 1006,1 hPa 0,0 l/m 0 min 2 min 0 W/m 12,9 km/h (3 Bft) 97,87 %
21.10.2020 04:56 11,8 C 10,6 C 10,0 C 99 % 1006,1 hPa 0,0 l/m 0 min 2 min 0 W/m 19,3 km/h (3 Bft) 95,92 %
21.10.2020 04:58 11,8 C 10,6 C 10,0 C 99 % 1006,1 hPa 0,0 l/m 0 min 2 min 0 W/m 12,9 km/h (3 Bft) 95,74 %
21.10.2020 05:00 11,8 C 10,6 C 10,0 C 99 % 1006,1 hPa 0,0 l/m 0 min 2 min 0 W/m 12,9 km/h (3 Bft) 97,83 %
21.10.2020 05:02 11,8 C 10,6 C 10,0 C 99 % 1006,1 hPa 0,0 l/m 0 min 2 min 0 W/m 6,4 km/h (2 Bft) 95,74 %
21.10.2020 05:04 11,8 C 10,6 C 10,0 C 99 % 1006,1 hPa 0,0 l/m 0 min 0 min 0 W/m 3,2 km/h (1 Bft) 94,29 %
21.10.2020 05:06 11,8 C 10,6 C 10,0 C 99 % 1006,1 hPa 0,0 l/m 0 min 0 min 0 W/m 6,4 km/h (2 Bft) 95,74 %
21.10.2020 05:08 11,8 C 10,6 C 10,0 C 99 % 1006,1 hPa 0,0 l/m 0 min 2 min 0 W/m 12,9 km/h (3 Bft) 97,87 %
21.10.2020 05:10 11,8 C 10,6 C 10,0 C 99 % 1006,1 hPa 0,0 l/m 0 min 2 min 0 W/m 0,0 km/h (0 Bft) 94,55 %
21.10.2020 05:12 11,8 C 10,6 C 10,0 C 99 % 1006,1 hPa 0,2 l/m 0 min 2 min 0 W/m 12,9 km/h (3 Bft) 95,92 %
21.10.2020 05:14 11,8 C 10,6 C 10,0 C 99 % 1006,1 hPa 0,0 l/m 0 min 2 min 0 W/m 16,1 km/h (3 Bft) 95,83 %
21.10.2020 05:16 11,8 C 10,6 C 10,0 C 99 % 1006,1 hPa 0,0 l/m 0 min 2 min 0 W/m 9,7 km/h (2 Bft) 93,62 %
21.10.2020 05:18 11,8 C 10,6 C 10,0 C 99 % 1006,0 hPa 0,0 l/m 0 min 2 min 0 W/m 6,4 km/h (2 Bft) 95,74 %
21.10.2020 05:20 11,8 C 10,6 C 10,0 C 99 % 1006,0 hPa 0,0 l/m 0 min 2 min 0 W/m 19,3 km/h (3 Bft) 94,29 %
21.10.2020 05:22 11,8 C 10,6 C 10,0 C 99 % 1006,1 hPa 0,0 l/m 0 min 2 min 0 W/m 12,9 km/h (3 Bft) 97,87 %
21.10.2020 05:24 11,7 C 10,6 C 10,0 C 99 % 1006,0 hPa 0,0 l/m 0 min 2 min 0 W/m 9,7 km/h (2 Bft) 96,30 %
21.10.2020 05:26 11,7 C 10,6 C 10,0 C 99 % 1006,0 hPa 0,0 l/m 0 min 2 min 0 W/m 16,1 km/h (3 Bft) 97,87 %
21.10.2020 05:28 11,7 C 10,6 C 10,0 C 99 % 1006,0 hPa 0,0 l/m 0 min 2 min 0 W/m 12,9 km/h (3 Bft) 98,00 %
21.10.2020 05:30 11,7 C 10,6 C 10,0 C 99 % 1006,0 hPa 0,0 l/m 0 min 2 min 0 W/m 3,2 km/h (1 Bft) 97,87 %
21.10.2020 05:32 11,7 C 10,6 C 10,0 C 99 % 1006,0 hPa 0,0 l/m 0 min 2 min 0 W/m 22,5 km/h (4 Bft) 97,92 %
21.10.2020 05:34 11,7 C 10,6 C 10,0 C 99 % 1005,9 hPa 0,0 l/m 0 min 2 min 0 W/m 6,4 km/h (2 Bft) 97,14 %
21.10.2020 05:36 11,7 C 10,6 C 10,0 C 99 % 1005,9 hPa 0,0 l/m 0 min 2 min 0 W/m 16,1 km/h (3 Bft) 98,15 %
21.10.2020 05:38 11,7 C 10,6 C 10,0 C 99 % 1005,9 hPa 0,0 l/m 0 min 2 min 0 W/m 3,2 km/h (1 Bft) 98,00 %
21.10.2020 05:40 11,7 C 10,6 C 10,0 C 99 % 1005,9 hPa 0,0 l/m 0 min 2 min 0 W/m 22,5 km/h (4 Bft) 97,87 %
21.10.2020 05:42 11,6 C 10,6 C 10,0 C 99 % 1005,8 hPa 0,0 l/m 0 min 2 min 0 W/m 0,0 km/h (0 Bft) 97,87 %
21.10.2020 05:44 11,7 C 10,6 C 10,0 C 99 % 1005,8 hPa 0,0 l/m 0 min 2 min 0 W/m 6,4 km/h (2 Bft) 97,92 %
21.10.2020 05:46 11,6 C 10,6 C 10,0 C 99 % 1005,8 hPa 0,2 l/m 0 min 2 min 0 W/m 12,9 km/h (3 Bft) 97,83 %
21.10.2020 05:48 11,6 C 10,6 C 10,0 C 99 % 1005,9 hPa 0,0 l/m 0 min 2 min 0 W/m 16,1 km/h (3 Bft) 97,87 %
21.10.2020 05:50 11,6 C 10,6 C 10,0 C 99 % 1005,8 hPa 0,0 l/m 0 min 2 min 0 W/m 3,2 km/h (1 Bft) 97,87 %
21.10.2020 05:52 11,6 C 10,6 C 10,0 C 99 % 1005,8 hPa 0,0 l/m 0 min 2 min 0 W/m 3,2 km/h (1 Bft) 97,14 %
21.10.2020 05:54 11,6 C 10,6 C 10,0 C 99 % 1005,7 hPa 0,0 l/m 0 min 2 min 0 W/m 16,1 km/h (3 Bft) 96,61 %
21.10.2020 05:56 11,6 C 10,6 C 10,0 C 99 % 1005,7 hPa 0,0 l/m 0 min 2 min 0 W/m 19,3 km/h (3 Bft) 97,87 %
21.10.2020 05:58 11,6 C 10,6 C 10,0 C 99 % 1005,7 hPa 0,0 l/m 0 min 2 min 0 W/m 16,1 km/h (3 Bft) 95,65 %
21.10.2020 06:00 11,6 C 10,6 C 10,0 C 99 % 1005,7 hPa 0,0 l/m 0 min 2 min 0 W/m 12,9 km/h (3 Bft) 97,87 %
21.10.2020 06:02 11,6 C 10,6 C 10,0 C 99 % 1005,6 hPa 0,0 l/m 0 min 2 min 0 W/m 22,5 km/h (4 Bft) 97,14 %
21.10.2020 06:04 11,6 C 10,6 C 10,0 C 99 % 1005,6 hPa 0,0 l/m 0 min 2 min 0 W/m 16,1 km/h (3 Bft) 95,74 %
21.10.2020 06:08 11,6 C 10,6 C 10,0 C 99 % 1005,5 hPa 0,0 l/m 0 min 4 min 0 W/m 16,1 km/h (3 Bft) 95,15 %
21.10.2020 06:10 11,5 C 10,6 C 10,0 C 99 % 1005,5 hPa 0,0 l/m 0 min 2 min 0 W/m 16,1 km/h (3 Bft) 93,88 %
21.10.2020 06:12 11,5 C 10,6 C 10,0 C 99 % 1005,4 hPa 0,0 l/m 0 min 2 min 0 W/m 16,1 km/h (3 Bft) 97,37 %
21.10.2020 06:14 11,5 C 10,6 C 10,0 C 99 % 1005,3 hPa 0,0 l/m 0 min 2 min 0 W/m 22,5 km/h (4 Bft) 93,62 %
21.10.2020 06:16 11,5 C 10,6 C 10,0 C 99 % 1005,3 hPa 0,0 l/m 0 min 0 min 0 W/m 3,2 km/h (1 Bft) 95,74 %
21.10.2020 06:18 11,5 C 10,6 C 10,0 C 99 % 1005,3 hPa 0,0 l/m 0 min 2 min 0 W/m 3,2 km/h (1 Bft) 97,87 %
21.10.2020 06:20 11,5 C 10,6 C 10,0 C 99 % 1005,2 hPa 0,0 l/m 0 min 2 min 0 W/m 16,1 km/h (3 Bft) 96,30 %
21.10.2020 06:22 11,5 C 10,6 C 10,0 C 99 % 1005,1 hPa 0,0 l/m 0 min 2 min 0 W/m 12,9 km/h (3 Bft) 95,92 %
21.10.2020 06:24 11,5 C 10,6 C 9,5 C 99 % 1005,1 hPa 0,0 l/m 0 min 2 min 0 W/m 6,4 km/h (2 Bft) 91,89 %
21.10.2020 06:26 11,5 C 10,6 C 10,0 C 99 % 1005,1 hPa 0,2 l/m 0 min 2 min 0 W/m 6,4 km/h (2 Bft) 95,74 %
21.10.2020 06:28 11,5 C 10,6 C 9,5 C 99 % 1005,1 hPa 0,0 l/m 0 min 2 min 0 W/m 12,9 km/h (3 Bft) 94,44 %
21.10.2020 06:30 11,5 C 10,6 C 9,5 C 99 % 1005,0 hPa 0,0 l/m 0 min 2 min 0 W/m 6,4 km/h (2 Bft) 95,74 %
21.10.2020 06:32 11,5 C 10,6 C 10,0 C 99 % 1005,0 hPa 0,0 l/m 0 min 2 min 0 W/m 12,9 km/h (3 Bft) 97,83 %
21.10.2020 06:34 11,5 C 10,6 C 10,0 C 99 % 1005,0 hPa 0,0 l/m 0 min 2 min 0 W/m 12,9 km/h (3 Bft) 96,00 %
21.10.2020 06:36 11,5 C 10,6 C 10,0 C 99 % 1004,9 hPa 0,0 l/m 0 min 2 min 0 W/m 16,1 km/h (3 Bft) 94,59 %
21.10.2020 06:38 11,5 C 10,6 C 10,0 C 99 % 1004,9 hPa 0,0 l/m 0 min 2 min 0 W/m 12,9 km/h (3 Bft) 97,87 %
21.10.2020 06:40 11,5 C 10,6 C 10,0 C 99 % 1004,9 hPa 0,0 l/m 0 min 2 min 0 W/m 9,7 km/h (2 Bft) 97,87 %
21.10.2020 06:42 11,5 C 10,6 C 10,0 C 99 % 1004,8 hPa 0,0 l/m 0 min 2 min 0 W/m 6,4 km/h (2 Bft) 97,87 %
21.10.2020 06:44 11,5 C 10,6 C 10,0 C 99 % 1004,8 hPa 0,0 l/m 0 min 2 min 0 W/m 3,2 km/h (1 Bft) 97,87 %
21.10.2020 06:46 11,5 C 10,6 C 10,0 C 99 % 1004,8 hPa 0,0 l/m 0 min 2 min 0 W/m 16,1 km/h (3 Bft) 95,74 %
21.10.2020 06:48 11,5 C 10,6 C 10,0 C 99 % 1004,7 hPa 0,0 l/m 0 min 2 min 0 W/m 19,3 km/h (3 Bft) 98,11 %
21.10.2020 06:50 11,5 C 10,6 C 10,0 C 99 % 1004,8 hPa 0,0 l/m 0 min 2 min 0 W/m 6,4 km/h (2 Bft) 100,00 %
21.10.2020 06:52 11,5 C 10,6 C 10,0 C 99 % 1004,8 hPa 0,0 l/m 0 min 2 min 0 W/m 9,7 km/h (2 Bft) 98,00 %
21.10.2020 06:54 11,5 C 10,6 C 10,0 C 99 % 1004,7 hPa 0,2 l/m 0 min 2 min 0 W/m 12,9 km/h (3 Bft) 100,00 %
21.10.2020 06:56 11,5 C 10,6 C 9,5 C 99 % 1004,7 hPa 0,0 l/m 0 min 2 min 0 W/m 19,3 km/h (3 Bft) 100,00 %
21.10.2020 06:58 11,5 C 10,6 C 10,0 C 99 % 1004,7 hPa 0,0 l/m 0 min 2 min 0 W/m 16,1 km/h (3 Bft) 97,87 %
21.10.2020 07:00 11,5 C 10,6 C 10,0 C 99 % 1004,7 hPa 0,0 l/m 0 min 2 min 0 W/m 12,9 km/h (3 Bft) 100,00 %
21.10.2020 07:02 11,5 C 10,6 C 10,0 C 99 % 1004,7 hPa 0,0 l/m 0 min 2 min 0 W/m 19,3 km/h (3 Bft) 97,87 %
21.10.2020 07:04 11,5 C 10,6 C 10,0 C 99 % 1004,6 hPa 0,0 l/m 0 min 2 min 0 W/m 19,3 km/h (3 Bft) 100,00 %
21.10.2020 07:06 11,5 C 10,6 C 9,5 C 99 % 1004,7 hPa 0,0 l/m 0 min 2 min 0 W/m 19,3 km/h (3 Bft) 100,00 %
21.10.2020 07:08 11,5 C 10,6 C 9,5 C 99 % 1004,6 hPa 0,0 l/m 0 min 2 min 0 W/m 19,3 km/h (3 Bft) 97,87 %
21.10.2020 07:10 11,5 C 10,6 C 9,5 C 99 % 1004,7 hPa 0,0 l/m 0 min 2 min 0 W/m 22,5 km/h (4 Bft) 96,36 %
21.10.2020 07:12 11,5 C 10,6 C 9,5 C 99 % 1004,7 hPa 0,0 l/m 0 min 2 min 0 W/m 19,3 km/h (3 Bft) 97,37 %
21.10.2020 07:14 11,5 C 10,6 C 9,5 C 99 % 1004,7 hPa 0,0 l/m 0 min 0 min 0 W/m 3,2 km/h (1 Bft) 100,00 %
21.10.2020 07:16 11,5 C 10,6 C 9,5 C 99 % 1004,7 hPa 0,0 l/m 0 min 2 min 0 W/m 16,1 km/h (3 Bft) 93,62 %
21.10.2020 07:18 11,5 C 10,6 C 9,5 C 99 % 1004,7 hPa 0,0 l/m 0 min 2 min 0 W/m 0,0 km/h (0 Bft) 95,74 %
21.10.2020 07:20 11,5 C 10,6 C 9,5 C 99 % 1004,8 hPa 0,0 l/m 0 min 2 min 0 W/m 0,0 km/h (0 Bft) 100,00 %
21.10.2020 07:22 11,5 C 10,6 C 9,5 C 99 % 1004,7 hPa 0,0 l/m 0 min 0 min 0 W/m 19,3 km/h (3 Bft) 97,87 %
21.10.2020 07:24 11,5 C 10,6 C 9,5 C 99 % 1004,5 hPa 0,0 l/m 0 min 0 min 0 W/m 16,1 km/h (3 Bft) 97,87 %
21.10.2020 07:26 11,5 C 10,6 C 9,5 C 99 % 1004,5 hPa 0,0 l/m 0 min 0 min 0 W/m 12,9 km/h (3 Bft) 93,88 %
21.10.2020 07:28 11,5 C 10,6 C 9,5 C 99 % 1004,5 hPa 0,0 l/m 0 min 0 min 0 W/m 12,9 km/h (3 Bft) 97,87 %
21.10.2020 07:30 11,5 C 10,6 C 9,5 C 99 % 1004,5 hPa 0,0 l/m 0 min 0 min 0 W/m 12,9 km/h (3 Bft) 97,87 %
21.10.2020 07:32 11,5 C 10,6 C 9,5 C 99 % 1004,5 hPa 0,0 l/m 0 min 0 min 0 W/m 3,2 km/h (1 Bft) 97,56 %
21.10.2020 07:34 11,5 C 10,6 C 9,5 C 99 % 1004,4 hPa 0,0 l/m 0 min 0 min 0 W/m 16,1 km/h (3 Bft) 97,87 %
21.10.2020 07:36 11,5 C 10,6 C 9,5 C 99 % 1004,4 hPa 0,0 l/m 0 min 0 min 0 W/m 6,4 km/h (2 Bft) 98,00 %
21.10.2020 07:38 11,5 C 10,6 C 9,5 C 99 % 1004,6 hPa 0,0 l/m 0 min 0 min 0 W/m 3,2 km/h (1 Bft) 97,96 %
21.10.2020 07:40 11,5 C 10,6 C 9,5 C 99 % 1004,7 hPa 0,0 l/m 0 min 0 min 0 W/m 12,9 km/h (3 Bft) 95,74 %
21.10.2020 07:42 11,5 C 10,6 C 9,5 C 99 % 1004,7 hPa 0,0 l/m 0 min 0 min 0 W/m 16,1 km/h (3 Bft) 97,87 %
21.10.2020 07:44 11,5 C 10,6 C 9,5 C 99 % 1004,9 hPa 0,0 l/m 0 min 0 min 0 W/m 12,9 km/h (3 Bft) 97,56 %
21.10.2020 07:46 11,4 C 10,6 C 9,5 C 99 % 1004,9 hPa 0,0 l/m 0 min 2 min 0 W/m 12,9 km/h (3 Bft) 96,00 %
21.10.2020 07:48 11,5 C 10,6 C 9,5 C 99 % 1005,0 hPa 0,0 l/m 0 min 2 min 0 W/m 6,4 km/h (2 Bft) 97,87 %
21.10.2020 07:50 11,5 C 10,6 C 9,5 C 99 % 1004,9 hPa 0,2 l/m 0 min 0 min 0 W/m 6,4 km/h (2 Bft) 97,96 %
21.10.2020 07:52 11,5 C 10,6 C 10,0 C 99 % 1004,8 hPa 0,0 l/m 0 min 0 min 0 W/m 3,2 km/h (1 Bft) 97,87 %
21.10.2020 07:54 11,5 C 10,6 C 9,5 C 99 % 1004,7 hPa 0,0 l/m 0 min 2 min 0 W/m 16,1 km/h (3 Bft) 97,87 %
21.10.2020 07:56 11,4 C 10,6 C 9,5 C 99 % 1004,7 hPa 0,0 l/m 0 min 2 min 0 W/m 0,0 km/h (0 Bft) 97,56 %
21.10.2020 07:58 11,4 C 10,6 C 9,5 C 99 % 1004,7 hPa 0,0 l/m 0 min 2 min 0 W/m 12,9 km/h (3 Bft) 97,87 %
21.10.2020 08:00 11,4 C 10,6 C 9,5 C 99 % 1004,7 hPa 0,0 l/m 0 min 2 min 0 W/m 6,4 km/h (2 Bft) 97,87 %
21.10.2020 08:02 11,4 C 10,6 C 9,5 C 99 % 1004,7 hPa 0,0 l/m 0 min 0 min 0 W/m 0,0 km/h (0 Bft) 96,00 %
21.10.2020 08:04 11,4 C 10,6 C 9,5 C 99 % 1004,7 hPa 0,0 l/m 0 min 0 min 0 W/m 6,4 km/h (2 Bft) 97,87 %
21.10.2020 08:06 11,4 C 10,6 C 9,5 C 99 % 1004,8 hPa 0,0 l/m 0 min 2 min 0 W/m 12,9 km/h (3 Bft) 97,87 %
21.10.2020 08:08 11,4 C 10,6 C 9,5 C 99 % 1004,8 hPa 0,0 l/m 0 min 2 min 0 W/m 6,4 km/h (2 Bft) 100,00 %
21.10.2020 08:10 11,4 C 10,6 C 9,5 C 99 % 1004,8 hPa 0,0 l/m 0 min 2 min 0 W/m 12,9 km/h (3 Bft) 100,00 %
21.10.2020 08:12 11,4 C 10,6 C 9,5 C 99 % 1004,8 hPa 0,0 l/m 0 min 2 min 0 W/m 6,4 km/h (2 Bft) 100,00 %
21.10.2020 08:14 11,4 C 10,6 C 9,5 C 99 % 1004,8 hPa 0,0 l/m 0 min 2 min 0 W/m 16,1 km/h (3 Bft) 100,00 %
21.10.2020 08:16 11,4 C 10,0 C 9,5 C 99 % 1004,8 hPa 0,0 l/m 0 min 2 min 0 W/m 6,4 km/h (2 Bft) 97,87 %
21.10.2020 08:18 11,4 C 10,0 C 9,5 C 99 % 1004,9 hPa 0,0 l/m 0 min 2 min 1 W/m 22,5 km/h (4 Bft) 100,00 %
21.10.2020 08:20 11,4 C 10,0 C 9,5 C 99 % 1004,9 hPa 0,0 l/m 0 min 2 min 5 W/m 6,4 km/h (2 Bft) 100,00 %
21.10.2020 08:22 11,4 C 10,0 C 9,5 C 99 % 1004,9 hPa 0,0 l/m 0 min 2 min 5 W/m 16,1 km/h (3 Bft) 100,00 %
21.10.2020 08:24 11,4 C 10,0 C 9,5 C 99 % 1004,9 hPa 0,2 l/m 0 min 2 min 5 W/m 12,9 km/h (3 Bft) 100,00 %
21.10.2020 08:26 11,4 C 10,6 C 9,5 C 99 % 1004,9 hPa 0,0 l/m 0 min 2 min 8 W/m 16,1 km/h (3 Bft) 100,00 %
21.10.2020 08:28 11,4 C 10,6 C 9,5 C 99 % 1004,9 hPa 0,0 l/m 0 min 2 min 10 W/m 12,9 km/h (3 Bft) 97,87 %
21.10.2020 08:30 11,4 C 10,6 C 9,5 C 99 % 1004,9 hPa 0,0 l/m 0 min 2 min 11 W/m 29,0 km/h (5 Bft) 100,00 %
21.10.2020 08:32 11,4 C 10,6 C 9,5 C 99 % 1004,9 hPa 0,0 l/m 0 min 2 min 13 W/m 6,4 km/h (2 Bft) 100,00 %
21.10.2020 08:34 11,4 C 10,6 C 9,5 C 99 % 1004,9 hPa 0,2 l/m 0 min 2 min 14 W/m 22,5 km/h (4 Bft) 100,00 %
21.10.2020 08:36 11,4 C 10,6 C 9,5 C 99 % 1004,9 hPa 0,0 l/m 0 min 2 min 13 W/m 6,4 km/h (2 Bft) 100,00 %
21.10.2020 08:38 11,4 C 10,6 C 9,5 C 99 % 1004,9 hPa 0,0 l/m 0 min 2 min 12 W/m 22,5 km/h (4 Bft) 97,87 %
21.10.2020 08:40 11,4 C 10,6 C 9,5 C 99 % 1004,8 hPa 0,0 l/m 0 min 2 min 12 W/m 6,4 km/h (2 Bft) 100,00 %
21.10.2020 08:42 11,4 C 10,6 C 10,0 C 99 % 1004,8 hPa 0,0 l/m 0 min 2 min 12 W/m 9,7 km/h (2 Bft) 100,00 %
21.10.2020 08:44 11,4 C 10,6 C 9,5 C 99 % 1004,7 hPa 0,0 l/m 0 min 2 min 12 W/m 16,1 km/h (3 Bft) 100,00 %
21.10.2020 08:46 11,4 C 10,6 C 10,0 C 99 % 1004,7 hPa 0,2 l/m 0 min 2 min 10 W/m 12,9 km/h (3 Bft) 100,00 %
21.10.2020 08:48 11,4 C 10,6 C 10,0 C 99 % 1004,7 hPa 0,0 l/m 0 min 2 min 9 W/m 22,5 km/h (4 Bft) 95,74 %
21.10.2020 08:50 11,4 C 10,6 C 10,0 C 99 % 1004,8 hPa 0,0 l/m 0 min 2 min 7 W/m 16,1 km/h (3 Bft) 95,74 %
21.10.2020 08:52 11,5 C 10,6 C 10,0 C 99 % 1004,8 hPa 0,2 l/m 0 min 2 min 6 W/m 19,3 km/h (3 Bft) 97,87 %
21.10.2020 08:54 11,5 C 10,6 C 10,0 C 99 % 1004,8 hPa 0,0 l/m 0 min 2 min 7 W/m 16,1 km/h (3 Bft) 95,12 %
21.10.2020 08:56 11,5 C 10,6 C 10,0 C 99 % 1004,7 hPa 0,0 l/m 0 min 2 min 8 W/m 0,0 km/h (0 Bft) 98,00 %
21.10.2020 08:58 11,5 C 10,6 C 10,0 C 99 % 1004,7 hPa 0,0 l/m 0 min 2 min 9 W/m 6,4 km/h (2 Bft) 95,65 %
21.10.2020 09:00 11,5 C 10,6 C 10,0 C 99 % 1004,8 hPa 0,2 l/m 0 min 2 min 9 W/m 16,1 km/h (3 Bft) 98,00 %
21.10.2020 09:02 11,5 C 10,6 C 10,0 C 99 % 1004,8 hPa 0,0 l/m 0 min 2 min 11 W/m 16,1 km/h (3 Bft) 97,87 %
21.10.2020 09:04 11,5 C 10,6 C 10,0 C 99 % 1004,8 hPa 0,0 l/m 0 min 2 min 12 W/m 3,2 km/h (1 Bft) 95,74 %
21.10.2020 09:06 11,5 C 10,6 C 10,0 C 99 % 1004,9 hPa 0,0 l/m 0 min 2 min 14 W/m 12,9 km/h (3 Bft) 95,65 %
21.10.2020 09:08 11,5 C 10,6 C 10,0 C 99 % 1004,9 hPa 0,2 l/m 0 min 2 min 16 W/m 16,1 km/h (3 Bft) 95,74 %
21.10.2020 09:10 11,5 C 10,6 C 10,0 C 99 % 1004,8 hPa 0,0 l/m 0 min 2 min 18 W/m 22,5 km/h (4 Bft) 97,14 %
21.10.2020 09:12 11,5 C 10,6 C 10,0 C 99 % 1004,9 hPa 0,0 l/m 0 min 2 min 19 W/m 22,5 km/h (4 Bft) 97,87 %
21.10.2020 09:14 11,5 C 10,6 C 10,0 C 99 % 1004,9 hPa 0,0 l/m 0 min 2 min 19 W/m 19,3 km/h (3 Bft) 97,87 %
21.10.2020 09:16 11,5 C 10,6 C 10,0 C 99 % 1004,8 hPa 0,0 l/m 0 min 2 min 16 W/m 12,9 km/h (3 Bft) 98,21 %
21.10.2020 09:18 11,5 C 10,6 C 10,0 C 99 % 1004,8 hPa 0,2 l/m 0 min 2 min 9 W/m 22,5 km/h (4 Bft) 97,92 %
21.10.2020 09:20 11,5 C 10,6 C 10,0 C 99 % 1004,8 hPa 0,0 l/m 0 min 2 min 6 W/m 12,9 km/h (3 Bft) 97,87 %
21.10.2020 09:22 11,5 C 10,6 C 10,0 C 99 % 1004,8 hPa 0,0 l/m 0 min 2 min 5 W/m 0,0 km/h (0 Bft) 97,87 %
21.10.2020 09:24 11,5 C 10,6 C 10,0 C 99 % 1004,8 hPa 0,2 l/m 0 min 2 min 6 W/m 0,0 km/h (0 Bft) 95,74 %
21.10.2020 09:26 11,5 C 10,6 C 10,0 C 99 % 1004,7 hPa 0,0 l/m 0 min 2 min 11 W/m 16,1 km/h (3 Bft) 97,92 %
21.10.2020 09:28 11,5 C 10,6 C 10,0 C 99 % 1004,6 hPa 0,0 l/m 0 min 2 min 14 W/m 12,9 km/h (3 Bft) 97,87 %
21.10.2020 09:30 11,5 C 10,6 C 10,0 C 99 % 1004,7 hPa 0,0 l/m 0 min 2 min 12 W/m 16,1 km/h (3 Bft) 95,65 %
21.10.2020 09:32 11,6 C 10,6 C 10,0 C 99 % 1004,7 hPa 0,0 l/m 0 min 2 min 15 W/m 3,2 km/h (1 Bft) 95,35 %
21.10.2020 09:34 11,6 C 10,6 C 10,0 C 99 % 1004,7 hPa 0,0 l/m 0 min 0 min 17 W/m 19,3 km/h (3 Bft) 95,74 %
21.10.2020 09:36 11,6 C 10,6 C 10,0 C 99 % 1004,7 hPa 0,0 l/m 0 min 2 min 21 W/m 16,1 km/h (3 Bft) 96,00 %
21.10.2020 09:38 11,6 C 10,6 C 10,0 C 99 % 1004,8 hPa 0,0 l/m 0 min 0 min 23 W/m 16,1 km/h (3 Bft) 95,74 %
21.10.2020 09:40 11,6 C 10,6 C 10,0 C 99 % 1004,8 hPa 0,0 l/m 0 min 0 min 25 W/m 16,1 km/h (3 Bft) 95,65 %
21.10.2020 09:42 11,6 C 10,6 C 10,0 C 99 % 1004,8 hPa 0,0 l/m 0 min 0 min 27 W/m 16,1 km/h (3 Bft) 97,92 %
21.10.2020 09:44 11,6 C 10,6 C 10,0 C 99 % 1004,8 hPa 0,0 l/m 0 min 0 min 25 W/m 22,5 km/h (4 Bft) 97,87 %
21.10.2020 09:46 11,6 C 10,6 C 10,0 C 99 % 1004,9 hPa 0,0 l/m 0 min 2 min 25 W/m 16,1 km/h (3 Bft) 97,87 %
21.10.2020 09:48 11,6 C 10,6 C 10,0 C 99 % 1004,9 hPa 0,0 l/m 0 min 2 min 22 W/m 25,7 km/h (4 Bft) 97,67 %
21.10.2020 09:50 11,7 C 10,6 C 10,0 C 99 % 1004,9 hPa 0,0 l/m 0 min 2 min 25 W/m 12,9 km/h (3 Bft) 97,87 %
21.10.2020 09:52 11,7 C 10,6 C 10,0 C 99 % 1004,9 hPa 0,2 l/m 0 min 2 min 25 W/m 19,3 km/h (3 Bft) 95,92 %
21.10.2020 09:54 11,7 C 10,6 C 10,0 C 99 % 1004,9 hPa 0,0 l/m 0 min 2 min 25 W/m 16,1 km/h (3 Bft) 93,75 %
21.10.2020 09:56 11,7 C 10,6 C 10,0 C 99 % 1004,8 hPa 0,0 l/m 0 min 2 min 26 W/m 6,4 km/h (2 Bft) 97,87 %
21.10.2020 09:58 11,8 C 10,6 C 10,0 C 99 % 1004,7 hPa 0,0 l/m 0 min 0 min 32 W/m 22,5 km/h (4 Bft) 97,87 %
21.10.2020 10:00 11,8 C 10,6 C 10,0 C 99 % 1004,5 hPa 0,0 l/m 0 min 0 min 35 W/m 22,5 km/h (4 Bft) 95,65 %
21.10.2020 10:02 11,8 C 10,6 C 10,0 C 99 % 1004,4 hPa 0,0 l/m 0 min 0 min 30 W/m 16,1 km/h (3 Bft) 95,83 %
21.10.2020 10:04 11,8 C 10,6 C 10,0 C 99 % 1004,2 hPa 0,0 l/m 0 min 0 min 33 W/m 25,7 km/h (4 Bft) 97,83 %
21.10.2020 10:06 11,8 C 11,1 C 10,0 C 99 % 1004,1 hPa 0,0 l/m 0 min 2 min 38 W/m 25,7 km/h (4 Bft) 97,87 %
21.10.2020 10:08 11,8 C 11,1 C 10,0 C 99 % 1004,1 hPa 0,0 l/m 0 min 2 min 38 W/m 22,5 km/h (4 Bft) 95,74 %
21.10.2020 10:10 11,8 C 11,1 C 10,0 C 99 % 1004,0 hPa 0,0 l/m 0 min 2 min 37 W/m 25,7 km/h (4 Bft) 93,62 %
21.10.2020 10:12 11,8 C 11,1 C 10,0 C 99 % 1004,0 hPa 0,0 l/m 0 min 2 min 35 W/m 22,5 km/h (4 Bft) 95,74 %
21.10.2020 10:14 11,8 C 11,1 C 10,0 C 99 % 1004,1 hPa 0,0 l/m 0 min 0 min 31 W/m 29,0 km/h (5 Bft) 94,29 %
21.10.2020 10:16 11,8 C 11,1 C 10,0 C 99 % 1004,3 hPa 0,0 l/m 0 min 0 min 26 W/m 22,5 km/h (4 Bft) 94,23 %
21.10.2020 10:18 11,8 C 11,1 C 10,0 C 99 % 1004,5 hPa 0,0 l/m 0 min 0 min 28 W/m 16,1 km/h (3 Bft) 95,12 %
21.10.2020 10:20 11,9 C 11,1 C 10,0 C 99 % 1004,6 hPa 0,0 l/m 0 min 2 min 30 W/m 19,3 km/h (3 Bft) 89,47 %
21.10.2020 10:22 11,9 C 11,1 C 10,0 C 99 % 1004,6 hPa 0,0 l/m 0 min 2 min 28 W/m 12,9 km/h (3 Bft) 95,74 %
21.10.2020 10:24 11,9 C 11,1 C 10,0 C 99 % 1004,7 hPa 0,0 l/m 0 min 2 min 29 W/m 19,3 km/h (3 Bft) 95,92 %
21.10.2020 10:26 11,9 C 11,1 C 10,0 C 99 % 1004,5 hPa 0,0 l/m 0 min 2 min 35 W/m 19,3 km/h (3 Bft) 93,62 %
21.10.2020 10:28 11,9 C 11,1 C 10,0 C 99 % 1004,7 hPa 0,0 l/m 0 min 2 min 45 W/m 16,1 km/h (3 Bft) 95,65 %
21.10.2020 10:30 11,9 C 11,1 C 10,0 C 99 % 1004,6 hPa 0,0 l/m 0 min 2 min 45 W/m 16,1 km/h (3 Bft) 93,62 %
21.10.2020 10:32 11,9 C 11,1 C 10,0 C 99 % 1004,7 hPa 0,0 l/m 0 min 0 min 43 W/m 16,1 km/h (3 Bft) 90,70 %
21.10.2020 10:34 11,9 C 11,1 C 10,6 C 99 % 1004,5 hPa 0,0 l/m 0 min 2 min 41 W/m 16,1 km/h (3 Bft) 95,74 %
21.10.2020 10:36 11,9 C 11,1 C 10,6 C 99 % 1004,6 hPa 0,0 l/m 0 min 0 min 45 W/m 16,1 km/h (3 Bft) 95,74 %
21.10.2020 10:38 11,9 C 11,1 C 10,6 C 99 % 1004,6 hPa 0,0 l/m 0 min 0 min 48 W/m 19,3 km/h (3 Bft) 95,65 %
21.10.2020 10:40 11,9 C 11,1 C 10,6 C 99 % 1004,7 hPa 0,2 l/m 0 min 0 min 51 W/m 19,3 km/h (3 Bft) 96,00 %
21.10.2020 10:42 11,9 C 11,1 C 10,6 C 99 % 1004,7 hPa 0,0 l/m 0 min 0 min 50 W/m 16,1 km/h (3 Bft) 95,74 %
21.10.2020 10:44 11,9 C 11,1 C 10,6 C 99 % 1004,7 hPa 0,0 l/m 0 min 2 min 46 W/m 16,1 km/h (3 Bft) 95,83 %
21.10.2020 10:46 11,9 C 11,1 C 10,6 C 99 % 1004,7 hPa 0,0 l/m 0 min 2 min 44 W/m 22,5 km/h (4 Bft) 95,74 %
21.10.2020 10:48 11,9 C 11,1 C 10,6 C 99 % 1004,8 hPa 0,0 l/m 0 min 2 min 44 W/m 16,1 km/h (3 Bft) 93,62 %
21.10.2020 10:50 11,9 C 11,1 C 10,6 C 99 % 1004,9 hPa 0,0 l/m 0 min 0 min 42 W/m 29,0 km/h (5 Bft) 97,83 %
21.10.2020 10:52 11,9 C 11,1 C 10,6 C 99 % 1004,8 hPa 0,0 l/m 0 min 0 min 45 W/m 16,1 km/h (3 Bft) 97,62 %
21.10.2020 10:54 11,9 C 11,1 C 10,6 C 99 % 1004,8 hPa 0,0 l/m 0 min 2 min 50 W/m 16,1 km/h (3 Bft) 95,74 %
21.10.2020 10:56 11,9 C 11,1 C 10,6 C 99 % 1004,6 hPa 0,0 l/m 0 min 2 min 51 W/m 19,3 km/h (3 Bft) 100,00 %
21.10.2020 10:58 11,9 C 11,1 C 10,6 C 99 % 1004,7 hPa 0,0 l/m 0 min 2 min 48 W/m 19,3 km/h (3 Bft) 95,92 %
21.10.2020 11:00 11,9 C 11,1 C 10,6 C 99 % 1004,6 hPa 0,0 l/m 0 min 0 min 46 W/m 16,1 km/h (3 Bft) 97,87 %
21.10.2020 11:02 11,9 C 11,1 C 10,6 C 99 % 1004,5 hPa 0,0 l/m 0 min 0 min 46 W/m 19,3 km/h (3 Bft) 100,00 %
21.10.2020 11:04 11,9 C 11,1 C 10,6 C 99 % 1004,5 hPa 0,0 l/m 0 min 0 min 46 W/m 16,1 km/h (3 Bft) 100,00 %
21.10.2020 11:06 11,9 C 11,1 C 10,6 C 99 % 1004,5 hPa 0,0 l/m 0 min 2 min 52 W/m 16,1 km/h (3 Bft) 98,00 %
21.10.2020 11:08 11,9 C 11,1 C 10,6 C 99 % 1004,5 hPa 0,0 l/m 0 min 2 min 62 W/m 6,4 km/h (2 Bft) 97,92 %
21.10.2020 11:10 11,9 C 11,1 C 10,6 C 99 % 1004,4 hPa 0,0 l/m 0 min 2 min 77 W/m 19,3 km/h (3 Bft) 100,00 %
21.10.2020 11:12 11,9 C 11,1 C 10,6 C 99 % 1004,4 hPa 0,0 l/m 0 min 0 min 81 W/m 12,9 km/h (3 Bft) 100,00 %
21.10.2020 11:14 12,0 C 11,1 C 10,6 C 99 % 1004,5 hPa 0,0 l/m 0 min 0 min 81 W/m 16,1 km/h (3 Bft) 100,00 %
21.10.2020 11:16 12,0 C 11,1 C 10,6 C 99 % 1004,4 hPa 0,0 l/m 0 min 0 min 79 W/m 16,1 km/h (3 Bft) 97,87 %
21.10.2020 11:18 12,0 C 11,1 C 10,6 C 99 % 1004,4 hPa 0,0 l/m 0 min 0 min 82 W/m 19,3 km/h (3 Bft) 100,00 %
21.10.2020 11:20 12,0 C 11,7 C 10,6 C 99 % 1004,3 hPa 0,0 l/m 0 min 0 min 92 W/m 22,5 km/h (4 Bft) 100,00 %
21.10.2020 11:22 12,0 C 11,7 C 10,6 C 99 % 1004,2 hPa 0,0 l/m 0 min 0 min 102 W/m 12,9 km/h (3 Bft) 98,00 %
21.10.2020 11:24 12,0 C 11,7 C 10,6 C 99 % 1004,2 hPa 0,0 l/m 0 min 0 min 104 W/m 16,1 km/h (3 Bft) 100,00 %
21.10.2020 11:26 12,0 C 11,7 C 10,6 C 99 % 1004,2 hPa 0,0 l/m 0 min 0 min 101 W/m 22,5 km/h (4 Bft) 97,87 %
21.10.2020 11:28 12,1 C 11,7 C 10,6 C 99 % 1004,0 hPa 0,0 l/m 0 min 0 min 103 W/m 12,9 km/h (3 Bft) 97,92 %
21.10.2020 11:30 12,1 C 11,7 C 10,6 C 99 % 1004,0 hPa 0,0 l/m 0 min 0 min 120 W/m 25,7 km/h (4 Bft) 98,00 %
21.10.2020 11:32 12,1 C 11,7 C 10,6 C 99 % 1003,9 hPa 0,0 l/m 0 min 0 min 133 W/m 19,3 km/h (3 Bft) 97,14 %
21.10.2020 11:34 12,1 C 11,7 C 10,6 C 99 % 1004,0 hPa 0,0 l/m 0 min 0 min 136 W/m 22,5 km/h (4 Bft) 98,21 %
21.10.2020 11:36 12,1 C 12,2 C 10,6 C 99 % 1003,8 hPa 0,0 l/m 0 min 0 min 138 W/m 19,3 km/h (3 Bft) 97,96 %
21.10.2020 11:38 12,1 C 12,2 C 10,6 C 99 % 1003,7 hPa 0,0 l/m 0 min 0 min 126 W/m 25,7 km/h (4 Bft) 97,87 %
21.10.2020 11:40 12,2 C 11,7 C 10,6 C 99 % 1003,9 hPa 0,0 l/m 0 min 0 min 92 W/m 12,9 km/h (3 Bft) 95,74 %
21.10.2020 11:42 12,2 C 11,7 C 10,6 C 99 % 1003,8 hPa 0,0 l/m 0 min 0 min 56 W/m 22,5 km/h (4 Bft) 95,74 %
21.10.2020 11:44 12,3 C 11,7 C 10,6 C 99 % 1003,8 hPa 0,0 l/m 0 min 0 min 38 W/m 16,1 km/h (3 Bft) 97,78 %
21.10.2020 11:46 12,3 C 11,7 C 10,6 C 99 % 1003,8 hPa 0,0 l/m 0 min 0 min 41 W/m 22,5 km/h (4 Bft) 95,92 %
21.10.2020 11:48 12,3 C 11,7 C 10,6 C 99 % 1003,9 hPa 0,0 l/m 0 min 0 min 40 W/m 19,3 km/h (3 Bft) 97,92 %
21.10.2020 11:50 12,3 C 11,7 C 10,6 C 99 % 1004,0 hPa 0,0 l/m 0 min 0 min 41 W/m 9,7 km/h (2 Bft) 97,92 %
21.10.2020 11:52 12,3 C 11,7 C 10,6 C 99 % 1004,0 hPa 0,0 l/m 0 min 0 min 43 W/m 22,5 km/h (4 Bft) 97,96 %
21.10.2020 11:54 12,3 C 11,7 C 10,6 C 99 % 1004,0 hPa 0,0 l/m 0 min 0 min 35 W/m 25,7 km/h (4 Bft) 97,22 %
21.10.2020 11:56 12,2 C 11,7 C 10,6 C 99 % 1003,9 hPa 0,0 l/m 0 min 0 min 31 W/m 12,9 km/h (3 Bft) 97,87 %
21.10.2020 11:58 12,3 C 11,7 C 10,6 C 99 % 1003,8 hPa 0,0 l/m 0 min 0 min 30 W/m 19,3 km/h (3 Bft) 96,30 %
21.10.2020 12:00 12,3 C 11,7 C 10,6 C 99 % 1003,8 hPa 0,0 l/m 0 min 0 min 31 W/m 16,1 km/h (3 Bft) 98,00 %
21.10.2020 12:02 12,3 C 11,7 C 10,6 C 99 % 1003,8 hPa 0,0 l/m 0 min 0 min 32 W/m 6,4 km/h (2 Bft) 94,44 %
21.10.2020 12:04 12,3 C 11,7 C 10,6 C 98 % 1003,8 hPa 0,0 l/m 0 min 0 min 26 W/m 22,5 km/h (4 Bft) 97,87 %
21.10.2020 12:07 12,3 C 11,7 C 10,6 C 98 % 1003,7 hPa 0,0 l/m 0 min 0 min 25 W/m 22,5 km/h (4 Bft) 97,47 %
21.10.2020 12:08 12,3 C 11,7 C 10,6 C 98 % 1003,7 hPa 0,0 l/m 0 min 0 min 27 W/m 16,1 km/h (3 Bft) 100,00 %
21.10.2020 12:10 12,3 C 11,7 C 10,6 C 98 % 1003,6 hPa 0,0 l/m 0 min 0 min 31 W/m 22,5 km/h (4 Bft) 97,30 %
21.10.2020 12:12 12,3 C 11,7 C 10,6 C 98 % 1003,6 hPa 0,0 l/m 0 min 0 min 38 W/m 0,0 km/h (0 Bft) 97,87 %
21.10.2020 12:14 12,3 C 11,7 C 10,6 C 98 % 1003,5 hPa 0,0 l/m 0 min 0 min 41 W/m 29,0 km/h (5 Bft) 97,83 %
21.10.2020 12:16 12,3 C 11,7 C 10,6 C 98 % 1003,4 hPa 0,0 l/m 0 min 0 min 40 W/m 22,5 km/h (4 Bft) 100,00 %
21.10.2020 12:18 12,3 C 11,7 C 10,6 C 98 % 1003,4 hPa 0,0 l/m 0 min 0 min 39 W/m 22,5 km/h (4 Bft) 100,00 %
21.10.2020 12:20 12,3 C 11,7 C 10,6 C 98 % 1003,4 hPa 0,0 l/m 0 min 0 min 41 W/m 16,1 km/h (3 Bft) 100,00 %
21.10.2020 12:22 12,4 C 11,7 C 10,6 C 98 % 1003,3 hPa 0,0 l/m 0 min 0 min 45 W/m 19,3 km/h (3 Bft) 97,30 %
21.10.2020 12:24 12,4 C 11,7 C 10,6 C 98 % 1003,3 hPa 0,0 l/m 0 min 0 min 43 W/m 19,3 km/h (3 Bft) 100,00 %
21.10.2020 12:26 12,4 C 11,7 C 10,6 C 97 % 1003,3 hPa 0,0 l/m 0 min 0 min 37 W/m 16,1 km/h (3 Bft) 100,00 %
21.10.2020 12:28 12,4 C 11,7 C 10,6 C 97 % 1003,3 hPa 0,0 l/m 0 min 0 min 36 W/m 12,9 km/h (3 Bft) 100,00 %
21.10.2020 12:30 12,4 C 11,7 C 10,6 C 97 % 1003,4 hPa 0,0 l/m 0 min 0 min 33 W/m 6,4 km/h (2 Bft) 98,00 %
21.10.2020 12:32 12,4 C 11,7 C 10,6 C 97 % 1003,4 hPa 0,0 l/m 0 min 0 min 33 W/m 6,4 km/h (2 Bft) 100,00 %
21.10.2020 12:34 12,4 C 11,7 C 10,6 C 97 % 1003,4 hPa 0,0 l/m 0 min 0 min 39 W/m 16,1 km/h (3 Bft) 100,00 %
21.10.2020 12:36 12,5 C 11,7 C 10,6 C 97 % 1003,4 hPa 0,0 l/m 0 min 0 min 39 W/m 19,3 km/h (3 Bft) 100,00 %
21.10.2020 12:38 12,5 C 11,7 C 10,6 C 97 % 1003,4 hPa 0,0 l/m 0 min 2 min 37 W/m 19,3 km/h (3 Bft) 98,00 %
21.10.2020 12:40 12,5 C 11,7 C 10,6 C 97 % 1003,4 hPa 0,0 l/m 0 min 2 min 39 W/m 12,9 km/h (3 Bft) 100,00 %
21.10.2020 12:42 12,5 C 11,7 C 10,6 C 96 % 1003,3 hPa 0,0 l/m 0 min 0 min 43 W/m 12,9 km/h (3 Bft) 97,87 %
21.10.2020 12:44 12,5 C 11,7 C 10,6 C 96 % 1003,3 hPa 0,0 l/m 0 min 0 min 46 W/m 16,1 km/h (3 Bft) 100,00 %
21.10.2020 12:46 12,6 C 11,7 C 10,6 C 96 % 1003,3 hPa 0,0 l/m 0 min 0 min 44 W/m 0,0 km/h (0 Bft) 100,00 %
21.10.2020 12:48 12,6 C 11,7 C 10,6 C 96 % 1003,3 hPa 0,0 l/m 0 min 0 min 34 W/m 0,0 km/h (0 Bft) 96,36 %
21.10.2020 12:50 12,6 C 11,7 C 10,6 C 96 % 1003,1 hPa 0,0 l/m 0 min 0 min 32 W/m 3,2 km/h (1 Bft) 97,96 %
21.10.2020 12:52 12,6 C 11,7 C 10,6 C 96 % 1003,0 hPa 0,0 l/m 0 min 0 min 34 W/m 19,3 km/h (3 Bft) 97,22 %
21.10.2020 12:54 12,6 C 11,7 C 10,6 C 96 % 1003,0 hPa 0,0 l/m 0 min 0 min 33 W/m 19,3 km/h (3 Bft) 100,00 %
21.10.2020 12:56 12,7 C 11,7 C 10,6 C 95 % 1003,0 hPa 0,0 l/m 0 min 0 min 28 W/m 16,1 km/h (3 Bft) 97,87 %
21.10.2020 12:58 12,7 C 11,7 C 10,6 C 95 % 1003,0 hPa 0,0 l/m 0 min 0 min 28 W/m 16,1 km/h (3 Bft) 95,74 %
21.10.2020 13:00 12,8 C 11,7 C 10,6 C 95 % 1002,8 hPa 0,0 l/m 0 min 0 min 33 W/m 22,5 km/h (4 Bft) 98,18 %
21.10.2020 13:02 12,8 C 12,2 C 10,6 C 95 % 1002,9 hPa 0,0 l/m 0 min 0 min 37 W/m 19,3 km/h (3 Bft) 97,37 %
21.10.2020 13:04 12,8 C 12,2 C 10,6 C 95 % 1002,8 hPa 0,0 l/m 0 min 0 min 45 W/m 22,5 km/h (4 Bft) 97,87 %
21.10.2020 13:06 12,8 C 12,2 C 11,1 C 95 % 1002,8 hPa 0,0 l/m 0 min 0 min 50 W/m 19,3 km/h (3 Bft) 95,74 %
21.10.2020 13:08 12,9 C 12,2 C 11,1 C 94 % 1002,7 hPa 0,0 l/m 0 min 0 min 57 W/m 12,9 km/h (3 Bft) 97,87 %
21.10.2020 13:10 12,9 C 12,2 C 11,1 C 94 % 1002,7 hPa 0,0 l/m 0 min 0 min 65 W/m 16,1 km/h (3 Bft) 96,30 %
21.10.2020 13:12 12,9 C 12,2 C 11,1 C 94 % 1002,7 hPa 0,0 l/m 0 min 0 min 68 W/m 6,4 km/h (2 Bft) 97,92 %
21.10.2020 13:14 12,9 C 12,2 C 11,1 C 94 % 1002,7 hPa 0,0 l/m 0 min 0 min 66 W/m 6,4 km/h (2 Bft) 97,96 %
21.10.2020 13:16 13,0 C 12,2 C 11,1 C 94 % 1002,6 hPa 0,0 l/m 0 min 0 min 66 W/m 16,1 km/h (3 Bft) 97,22 %
21.10.2020 13:18 13,0 C 12,2 C 11,1 C 94 % 1002,6 hPa 0,0 l/m 0 min 0 min 66 W/m 22,5 km/h (4 Bft) 97,96 %
21.10.2020 13:20 13,0 C 12,8 C 11,1 C 94 % 1002,5 hPa 0,0 l/m 0 min 0 min 71 W/m 19,3 km/h (3 Bft) 97,92 %
21.10.2020 13:22 13,1 C 12,8 C 11,1 C 94 % 1002,5 hPa 0,0 l/m 0 min 0 min 88 W/m 16,1 km/h (3 Bft) 97,83 %
21.10.2020 13:24 13,1 C 12,8 C 11,1 C 93 % 1002,6 hPa 0,0 l/m 0 min 0 min 94 W/m 6,4 km/h (2 Bft) 97,87 %
21.10.2020 13:26 13,2 C 12,8 C 11,1 C 93 % 1002,6 hPa 0,0 l/m 0 min 0 min 89 W/m 3,2 km/h (1 Bft) 98,15 %
21.10.2020 13:28 13,3 C 12,8 C 11,7 C 93 % 1002,5 hPa 0,0 l/m 0 min 0 min 82 W/m 9,7 km/h (2 Bft) 97,30 %
21.10.2020 13:30 13,3 C 12,8 C 11,7 C 93 % 1002,5 hPa 0,0 l/m 0 min 0 min 81 W/m 22,5 km/h (4 Bft) 98,00 %
21.10.2020 13:32 13,4 C 12,8 C 11,7 C 93 % 1002,4 hPa 0,0 l/m 0 min 0 min 75 W/m 16,1 km/h (3 Bft) 98,00 %
21.10.2020 13:34 13,4 C 12,8 C 11,7 C 93 % 1002,5 hPa 0,0 l/m 0 min 0 min 70 W/m 12,9 km/h (3 Bft) 97,83 %
21.10.2020 13:36 13,5 C 12,8 C 11,7 C 93 % 1002,4 hPa 0,0 l/m 0 min 0 min 73 W/m 19,3 km/h (3 Bft) 97,87 %
21.10.2020 13:38 13,5 C 13,3 C 11,7 C 92 % 1002,4 hPa 0,0 l/m 0 min 0 min 86 W/m 16,1 km/h (3 Bft) 97,62 %
21.10.2020 13:40 13,6 C 13,3 C 11,7 C 92 % 1002,5 hPa 0,0 l/m 0 min 0 min 95 W/m 0,0 km/h (0 Bft) 100,00 %
21.10.2020 13:42 13,6 C 13,9 C 11,7 C 92 % 1002,5 hPa 0,0 l/m 0 min 0 min 107 W/m 16,1 km/h (3 Bft) 95,83 %
21.10.2020 13:44 13,7 C 13,9 C 11,7 C 92 % 1002,4 hPa 0,0 l/m 0 min 0 min 114 W/m 12,9 km/h (3 Bft) 100,00 %
21.10.2020 13:46 13,8 C 14,4 C 11,7 C 92 % 1002,4 hPa 0,0 l/m 0 min 0 min 105 W/m 19,3 km/h (3 Bft) 100,00 %
21.10.2020 13:48 13,8 C 14,4 C 11,7 C 92 % 1002,4 hPa 0,0 l/m 0 min 0 min 103 W/m 16,1 km/h (3 Bft) 100,00 %
21.10.2020 13:50 13,9 C 14,4 C 11,7 C 92 % 1002,3 hPa 0,0 l/m 0 min 0 min 106 W/m 19,3 km/h (3 Bft) 100,00 %
21.10.2020 13:52 14,0 C 15,0 C 11,7 C 92 % 1002,3 hPa 0,0 l/m 0 min 0 min 113 W/m 19,3 km/h (3 Bft) 100,00 %
21.10.2020 13:54 14,0 C 15,0 C 12,2 C 92 % 1002,3 hPa 0,0 l/m 0 min 0 min 126 W/m 19,3 km/h (3 Bft) 97,96 %
21.10.2020 13:56 14,2 C 15,0 C 12,2 C 91 % 1002,2 hPa 0,0 l/m 0 min 0 min 125 W/m 12,9 km/h (3 Bft) 100,00 %
21.10.2020 13:58 14,2 C 15,6 C 12,2 C 91 % 1002,2 hPa 0,0 l/m 0 min 0 min 133 W/m 19,3 km/h (3 Bft) 97,92 %
21.10.2020 14:00 14,2 C 15,6 C 12,2 C 91 % 1002,1 hPa 0,0 l/m 0 min 0 min 148 W/m 25,7 km/h (4 Bft) 97,87 %
21.10.2020 14:02 14,4 C 15,6 C 12,2 C 91 % 1002,1 hPa 0,0 l/m 0 min 0 min 167 W/m 19,3 km/h (3 Bft) 95,24 %
21.10.2020 14:04 14,5 C 16,1 C 12,2 C 91 % 1002,1 hPa 0,0 l/m 0 min 0 min 171 W/m 19,3 km/h (3 Bft) 98,00 %
21.10.2020 14:06 14,6 C 16,1 C 12,8 C 91 % 1002,1 hPa 0,0 l/m 0 min 0 min 178 W/m 22,5 km/h (4 Bft) 95,83 %
21.10.2020 14:08 14,7 C 16,7 C 12,8 C 90 % 1002,1 hPa 0,0 l/m 0 min 0 min 187 W/m 16,1 km/h (3 Bft) 93,62 %
21.10.2020 14:10 14,9 C 16,7 C 12,8 C 90 % 1002,0 hPa 0,0 l/m 0 min 0 min 195 W/m 22,5 km/h (4 Bft) 95,74 %
21.10.2020 14:12 15,0 C 17,2 C 12,8 C 90 % 1001,9 hPa 0,0 l/m 0 min 0 min 176 W/m 19,3 km/h (3 Bft) 93,62 %
21.10.2020 14:14 15,1 C 17,2 C 12,8 C 89 % 1001,9 hPa 0,0 l/m 0 min 0 min 160 W/m 19,3 km/h (3 Bft) 94,29 %
21.10.2020 14:16 15,3 C 18,9 C 12,8 C 89 % 1001,9 hPa 0,0 l/m 0 min 0 min 212 W/m 25,7 km/h (4 Bft) 96,36 %
21.10.2020 14:18 15,5 C 21,1 C 13,4 C 88 % 1002,0 hPa 0,0 l/m 2 min 0 min 351 W/m 29,0 km/h (5 Bft) 93,88 %
21.10.2020 14:20 15,7 C 22,2 C 13,9 C 88 % 1002,0 hPa 0,0 l/m 2 min 0 min 497 W/m 19,3 km/h (3 Bft) 95,83 %
21.10.2020 14:22 16,0 C 22,8 C 13,9 C 87 % 1001,9 hPa 0,0 l/m 2 min 0 min 467 W/m 29,0 km/h (5 Bft) 93,62 %
21.10.2020 14:24 16,3 C 23,3 C 13,9 C 87 % 1001,9 hPa 0,0 l/m 2 min 0 min 456 W/m 22,5 km/h (4 Bft) 95,74 %
21.10.2020 14:26 16,5 C 23,3 C 13,9 C 86 % 1001,9 hPa 0,0 l/m 2 min 0 min 452 W/m 32,2 km/h (5 Bft) 93,62 %
21.10.2020 14:28 16,8 C 23,3 C 13,9 C 86 % 1001,8 hPa 0,0 l/m 2 min 0 min 453 W/m 25,7 km/h (4 Bft) 94,29 %
21.10.2020 14:30 17,1 C 23,9 C 14,5 C 85 % 1001,8 hPa 0,0 l/m 2 min 0 min 450 W/m 25,7 km/h (4 Bft) 96,36 %
21.10.2020 14:32 17,4 C 23,3 C 14,5 C 84 % 1001,7 hPa 0,0 l/m 2 min 0 min 461 W/m 38,6 km/h (5 Bft) 95,92 %
21.10.2020 14:34 17,7 C 22,8 C 14,5 C 82 % 1001,6 hPa 0,0 l/m 2 min 0 min 449 W/m 38,6 km/h (5 Bft) 93,75 %
21.10.2020 14:36 18,0 C 23,3 C 14,5 C 81 % 1001,7 hPa 0,0 l/m 2 min 0 min 445 W/m 32,2 km/h (5 Bft) 93,62 %
21.10.2020 14:38 18,3 C 22,8 C 15,0 C 79 % 1001,6 hPa 0,0 l/m 2 min 0 min 445 W/m 35,4 km/h (5 Bft) 95,74 %
21.10.2020 14:40 18,6 C 22,8 C 15,0 C 79 % 1001,6 hPa 0,0 l/m 2 min 0 min 396 W/m 35,4 km/h (5 Bft) 95,24 %
21.10.2020 14:42 18,8 C 23,3 C 16,1 C 77 % 1001,6 hPa 0,0 l/m 2 min 0 min 417 W/m 38,6 km/h (5 Bft) 96,00 %
21.10.2020 14:44 19,0 C 23,3 C 16,7 C 76 % 1001,7 hPa 0,0 l/m 2 min 0 min 453 W/m 32,2 km/h (5 Bft) 95,83 %
21.10.2020 14:46 19,3 C 23,9 C 16,7 C 75 % 1001,5 hPa 0,0 l/m 2 min 0 min 463 W/m 41,8 km/h (6 Bft) 95,74 %
21.10.2020 14:48 19,5 C 23,9 C 17,2 C 75 % 1001,6 hPa 0,0 l/m 2 min 0 min 483 W/m 25,7 km/h (4 Bft) 97,67 %
21.10.2020 14:50 19,8 C 24,4 C 17,2 C 74 % 1001,6 hPa 0,0 l/m 2 min 0 min 474 W/m 29,0 km/h (5 Bft) 96,00 %
21.10.2020 14:52 19,9 C 23,9 C 17,8 C 74 % 1001,6 hPa 0,0 l/m 2 min 0 min 448 W/m 51,5 km/h (7 Bft) 95,83 %
21.10.2020 14:54 20,1 C 23,9 C 17,2 C 72 % 1001,5 hPa 0,0 l/m 2 min 0 min 443 W/m 51,5 km/h (7 Bft) 93,48 %
21.10.2020 14:56 20,3 C 23,3 C 17,8 C 71 % 1001,6 hPa 0,0 l/m 2 min 0 min 436 W/m 54,7 km/h (7 Bft) 100,00 %
21.10.2020 14:58 20,4 C 23,9 C 17,8 C 71 % 1001,5 hPa 0,0 l/m 2 min 0 min 429 W/m 38,6 km/h (5 Bft) 100,00 %
21.10.2020 15:00 20,5 C 23,9 C 17,8 C 70 % 1001,6 hPa 0,0 l/m 2 min 0 min 426 W/m 38,6 km/h (5 Bft) 97,96 %
21.10.2020 15:02 20,6 C 23,9 C 17,8 C 71 % 1001,6 hPa 0,0 l/m 2 min 0 min 421 W/m 32,2 km/h (5 Bft) 100,00 %
21.10.2020 15:04 20,8 C 24,4 C 17,8 C 70 % 1001,6 hPa 0,0 l/m 2 min 0 min 417 W/m 29,0 km/h (5 Bft) 100,00 %
21.10.2020 15:06 20,9 C 23,9 C 17,8 C 69 % 1001,5 hPa 0,0 l/m 2 min 0 min 413 W/m 41,8 km/h (6 Bft) 100,00 %
21.10.2020 15:08 20,9 C 23,9 C 17,8 C 69 % 1001,6 hPa 0,0 l/m 2 min 0 min 407 W/m 32,2 km/h (5 Bft) 97,96 %
21.10.2020 15:10 21,0 C 23,9 C 18,4 C 68 % 1001,6 hPa 0,0 l/m 2 min 0 min 406 W/m 35,4 km/h (5 Bft) 97,92 %
21.10.2020 15:12 21,0 C 23,3 C 18,4 C 68 % 1001,6 hPa 0,0 l/m 2 min 0 min 404 W/m 35,4 km/h (5 Bft) 100,00 %
21.10.2020 15:14 21,1 C 23,3 C 18,4 C 67 % 1001,5 hPa 0,0 l/m 2 min 0 min 400 W/m 57,9 km/h (7 Bft) 97,87 %
21.10.2020 15:16 21,2 C 23,9 C 18,4 C 67 % 1001,4 hPa 0,0 l/m 2 min 0 min 396 W/m 32,2 km/h (5 Bft) 100,00 %
21.10.2020 15:18 21,3 C 23,9 C 18,4 C 67 % 1001,5 hPa 0,0 l/m 2 min 0 min 392 W/m 35,4 km/h (5 Bft) 100,00 %
21.10.2020 15:20 21,3 C 23,9 C 17,8 C 68 % 1001,5 hPa 0,0 l/m 2 min 0 min 387 W/m 35,4 km/h (5 Bft) 97,96 %
21.10.2020 15:22 21,4 C 24,4 C 18,4 C 68 % 1001,5 hPa 0,0 l/m 2 min 0 min 386 W/m 32,2 km/h (5 Bft) 100,00 %
21.10.2020 15:24 21,4 C 24,4 C 17,8 C 68 % 1001,4 hPa 0,0 l/m 2 min 0 min 386 W/m 29,0 km/h (5 Bft) 100,00 %
21.10.2020 15:26 21,4 C 24,4 C 17,8 C 67 % 1001,5 hPa 0,0 l/m 2 min 0 min 362 W/m 32,2 km/h (5 Bft) 100,00 %
21.10.2020 15:28 21,5 C 22,8 C 17,8 C 67 % 1001,5 hPa 0,0 l/m 2 min 0 min 307 W/m 41,8 km/h (6 Bft) 100,00 %
21.10.2020 15:30 21,5 C 22,2 C 17,8 C 66 % 1001,5 hPa 0,0 l/m 0 min 0 min 108 W/m 35,4 km/h (5 Bft) 97,87 %
21.10.2020 15:32 21,4 C 21,1 C 17,8 C 67 % 1001,5 hPa 0,0 l/m 0 min 0 min 119 W/m 45,1 km/h (6 Bft) 100,00 %
21.10.2020 15:34 21,4 C 20,6 C 17,8 C 66 % 1001,4 hPa 0,0 l/m 0 min 0 min 91 W/m 45,1 km/h (6 Bft) 100,00 %
21.10.2020 15:36 21,3 C 20,6 C 17,8 C 67 % 1001,5 hPa 0,0 l/m 0 min 0 min 114 W/m 54,7 km/h (7 Bft) 100,00 %
21.10.2020 15:38 21,2 C 20,6 C 17,8 C 66 % 1001,4 hPa 0,0 l/m 0 min 0 min 92 W/m 35,4 km/h (5 Bft) 97,37 %
21.10.2020 15:40 21,1 C 20,0 C 17,8 C 67 % 1001,5 hPa 0,0 l/m 0 min 0 min 86 W/m 25,7 km/h (4 Bft) 100,00 %
21.10.2020 15:42 21,1 C 20,0 C 17,2 C 67 % 1001,5 hPa 0,0 l/m 0 min 0 min 82 W/m 25,7 km/h (4 Bft) 100,00 %
21.10.2020 15:44 21,1 C 20,0 C 17,2 C 68 % 1001,5 hPa 0,0 l/m 0 min 0 min 97 W/m 38,6 km/h (5 Bft) 98,00 %
21.10.2020 15:46 21,0 C 20,6 C 17,2 C 67 % 1001,5 hPa 0,0 l/m 0 min 0 min 128 W/m 41,8 km/h (6 Bft) 97,92 %
21.10.2020 15:48 21,0 C 20,6 C 17,2 C 68 % 1001,5 hPa 0,0 l/m 0 min 0 min 157 W/m 19,3 km/h (3 Bft) 100,00 %
21.10.2020 15:50 21,0 C 20,6 C 17,8 C 68 % 1001,5 hPa 0,0 l/m 0 min 0 min 147 W/m 29,0 km/h (5 Bft) 100,00 %
21.10.2020 15:52 20,9 C 20,6 C 17,8 C 68 % 1001,5 hPa 0,0 l/m 0 min 0 min 125 W/m 29,0 km/h (5 Bft) 98,11 %
21.10.2020 15:54 20,9 C 20,6 C 17,8 C 68 % 1001,6 hPa 0,0 l/m 0 min 0 min 126 W/m 32,2 km/h (5 Bft) 97,96 %
21.10.2020 15:56 20,9 C 21,1 C 17,8 C 69 % 1001,5 hPa 0,0 l/m 0 min 0 min 130 W/m 32,2 km/h (5 Bft) 97,96 %
21.10.2020 15:58 20,9 C 21,1 C 17,8 C 69 % 1001,5 hPa 0,0 l/m 0 min 0 min 142 W/m 25,7 km/h (4 Bft) 100,00 %
21.10.2020 16:00 20,9 C 21,1 C 17,8 C 69 % 1001,5 hPa 0,0 l/m 0 min 0 min 148 W/m 29,0 km/h (5 Bft) 100,00 %
21.10.2020 16:02 20,9 C 21,7 C 17,8 C 68 % 1001,5 hPa 0,0 l/m 0 min 0 min 150 W/m 41,8 km/h (6 Bft) 94,00 %
21.10.2020 16:04 21,0 C 21,1 C 17,8 C 69 % 1001,5 hPa 0,0 l/m 0 min 0 min 146 W/m 22,5 km/h (4 Bft) 97,87 %
21.10.2020 16:06 21,0 C 21,1 C 17,8 C 69 % 1001,6 hPa 0,0 l/m 0 min 0 min 116 W/m 48,3 km/h (6 Bft) 95,65 %
21.10.2020 16:08 21,0 C 21,1 C 17,8 C 68 % 1001,5 hPa 0,0 l/m 0 min 0 min 148 W/m 29,0 km/h (5 Bft) 97,87 %
21.10.2020 16:10 21,0 C 22,8 C 17,8 C 68 % 1001,5 hPa 0,0 l/m 2 min 0 min 268 W/m 16,1 km/h (3 Bft) 97,87 %
21.10.2020 16:12 21,0 C 22,8 C 17,8 C 68 % 1001,5 hPa 0,0 l/m 2 min 0 min 367 W/m 32,2 km/h (5 Bft) 98,15 %
21.10.2020 16:14 21,1 C 21,7 C 17,8 C 68 % 1001,5 hPa 0,0 l/m 0 min 0 min 119 W/m 29,0 km/h (5 Bft) 97,37 %
21.10.2020 16:16 21,1 C 21,1 C 18,4 C 68 % 1001,5 hPa 0,0 l/m 0 min 0 min 100 W/m 29,0 km/h (5 Bft) 97,92 %
21.10.2020 16:18 21,1 C 20,6 C 18,4 C 68 % 1001,8 hPa 0,0 l/m 0 min 0 min 76 W/m 48,3 km/h (6 Bft) 97,87 %
21.10.2020 16:20 21,1 C 20,6 C 18,4 C 67 % 1001,6 hPa 0,0 l/m 0 min 0 min 65 W/m 35,4 km/h (5 Bft) 97,87 %
21.10.2020 16:22 21,1 C 20,6 C 18,4 C 67 % 1001,6 hPa 0,0 l/m 0 min 0 min 54 W/m 32,2 km/h (5 Bft) 97,87 %
21.10.2020 16:24 21,1 C 20,6 C 17,8 C 67 % 1001,6 hPa 0,0 l/m 0 min 0 min 60 W/m 45,1 km/h (6 Bft) 98,15 %
21.10.2020 16:26 21,1 C 20,6 C 17,8 C 67 % 1001,7 hPa 0,0 l/m 0 min 0 min 57 W/m 35,4 km/h (5 Bft) 97,30 %
21.10.2020 16:28 21,1 C 20,6 C 17,8 C 67 % 1001,8 hPa 0,0 l/m 0 min 0 min 63 W/m 32,2 km/h (5 Bft) 97,96 %
21.10.2020 16:30 21,0 C 20,6 C 17,8 C 67 % 1001,7 hPa 0,0 l/m 0 min 0 min 70 W/m 41,8 km/h (6 Bft) 95,74 %
21.10.2020 16:32 21,0 C 21,7 C 17,8 C 67 % 1001,5 hPa 0,0 l/m 2 min 0 min 147 W/m 35,4 km/h (5 Bft) 93,62 %
21.10.2020 16:34 21,1 C 22,8 C 18,4 C 67 % 1001,7 hPa 0,0 l/m 2 min 0 min 315 W/m 48,3 km/h (6 Bft) 95,74 %
21.10.2020 16:36 21,2 C 23,3 C 18,4 C 67 % 1001,5 hPa 0,0 l/m 2 min 0 min 307 W/m 45,1 km/h (6 Bft) 94,55 %
21.10.2020 16:38 21,3 C 22,8 C 18,9 C 67 % 1001,5 hPa 0,0 l/m 2 min 0 min 261 W/m 25,7 km/h (4 Bft) 95,74 %
21.10.2020 16:40 21,3 C 23,3 C 18,4 C 67 % 1001,6 hPa 0,0 l/m 2 min 0 min 244 W/m 29,0 km/h (5 Bft) 94,59 %
21.10.2020 16:42 21,4 C 23,3 C 18,4 C 66 % 1001,6 hPa 0,0 l/m 2 min 0 min 266 W/m 51,5 km/h (7 Bft) 95,83 %
21.10.2020 16:44 21,4 C 22,8 C 18,4 C 66 % 1001,6 hPa 0,0 l/m 2 min 0 min 276 W/m 35,4 km/h (5 Bft) 93,62 %
21.10.2020 16:46 21,5 C 22,8 C 18,4 C 66 % 1001,7 hPa 0,0 l/m 2 min 0 min 245 W/m 35,4 km/h (5 Bft) 98,15 %
21.10.2020 16:48 21,5 C 22,2 C 18,4 C 66 % 1001,6 hPa 0,0 l/m 2 min 0 min 240 W/m 35,4 km/h (5 Bft) 94,74 %
21.10.2020 16:50 21,5 C 22,8 C 18,4 C 66 % 1001,7 hPa 0,0 l/m 2 min 0 min 244 W/m 38,6 km/h (5 Bft) 93,88 %
21.10.2020 16:52 21,5 C 22,2 C 18,4 C 66 % 1001,6 hPa 0,0 l/m 2 min 0 min 234 W/m 38,6 km/h (5 Bft) 95,65 %
21.10.2020 16:54 21,5 C 21,7 C 18,4 C 66 % 1001,5 hPa 0,0 l/m 2 min 0 min 213 W/m 38,6 km/h (5 Bft) 94,44 %
21.10.2020 16:56 21,5 C 21,1 C 18,4 C 66 % 1001,6 hPa 0,0 l/m 2 min 0 min 197 W/m 48,3 km/h (6 Bft) 94,59 %
21.10.2020 16:58 21,5 C 20,6 C 18,4 C 66 % 1001,8 hPa 0,0 l/m 2 min 0 min 185 W/m 48,3 km/h (6 Bft) 94,00 %
21.10.2020 17:00 21,4 C 20,6 C 18,4 C 66 % 1001,6 hPa 0,0 l/m 2 min 0 min 181 W/m 41,8 km/h (6 Bft) 96,00 %
21.10.2020 17:02 21,4 C 20,6 C 18,4 C 66 % 1001,7 hPa 0,0 l/m 2 min 0 min 137 W/m 51,5 km/h (7 Bft) 95,92 %
21.10.2020 17:04 21,4 C 20,6 C 18,4 C 65 % 1001,6 hPa 0,0 l/m 0 min 0 min 67 W/m 57,9 km/h (7 Bft) 94,44 %
21.10.2020 17:06 21,4 C 20,6 C 18,4 C 66 % 1001,6 hPa 0,0 l/m 0 min 0 min 58 W/m 38,6 km/h (5 Bft) 95,65 %
21.10.2020 17:08 21,4 C 20,6 C 17,8 C 66 % 1001,7 hPa 0,0 l/m 0 min 0 min 62 W/m 22,5 km/h (4 Bft) 93,62 %
21.10.2020 17:10 21,3 C 20,6 C 17,8 C 67 % 1001,7 hPa 0,0 l/m 0 min 0 min 67 W/m 25,7 km/h (4 Bft) 96,30 %
21.10.2020 17:12 21,3 C 20,6 C 17,8 C 67 % 1001,6 hPa 0,0 l/m 0 min 0 min 80 W/m 32,2 km/h (5 Bft) 95,83 %
21.10.2020 17:14 21,2 C 20,6 C 17,8 C 67 % 1001,7 hPa 0,0 l/m 0 min 0 min 78 W/m 35,4 km/h (5 Bft) 95,83 %
21.10.2020 17:16 21,1 C 20,6 C 18,4 C 67 % 1001,9 hPa 0,0 l/m 2 min 0 min 90 W/m 38,6 km/h (5 Bft) 97,92 %
21.10.2020 17:18 21,1 C 20,6 C 18,4 C 67 % 1001,7 hPa 0,0 l/m 0 min 0 min 69 W/m 35,4 km/h (5 Bft) 95,83 %
21.10.2020 17:20 21,1 C 20,6 C 17,8 C 67 % 1001,7 hPa 0,0 l/m 0 min 0 min 57 W/m 25,7 km/h (4 Bft) 97,14 %
21.10.2020 17:22 21,0 C 20,0 C 17,8 C 67 % 1001,9 hPa 0,0 l/m 0 min 0 min 56 W/m 35,4 km/h (5 Bft) 95,74 %
21.10.2020 17:24 21,0 C 20,0 C 17,8 C 67 % 1001,8 hPa 0,0 l/m 0 min 0 min 43 W/m 29,0 km/h (5 Bft) 96,36 %
21.10.2020 17:26 21,0 C 20,0 C 17,8 C 67 % 1001,8 hPa 0,0 l/m 0 min 0 min 43 W/m 35,4 km/h (5 Bft) 97,92 %
21.10.2020 17:28 21,0 C 20,0 C 17,8 C 68 % 1001,8 hPa 0,0 l/m 0 min 0 min 47 W/m 32,2 km/h (5 Bft) 95,83 %
21.10.2020 17:30 21,0 C 20,0 C 17,8 C 68 % 1001,8 hPa 0,0 l/m 0 min 0 min 43 W/m 29,0 km/h (5 Bft) 97,92 %
21.10.2020 17:32 20,9 C 20,0 C 17,8 C 68 % 1001,9 hPa 0,0 l/m 0 min 0 min 42 W/m 35,4 km/h (5 Bft) 97,14 %
21.10.2020 17:34 20,9 C 20,0 C 17,8 C 68 % 1002,1 hPa 0,0 l/m 0 min 0 min 41 W/m 41,8 km/h (6 Bft) 98,15 %
21.10.2020 17:36 20,9 C 20,0 C 17,8 C 68 % 1002,0 hPa 0,0 l/m 0 min 0 min 36 W/m 41,8 km/h (6 Bft) 95,92 %
21.10.2020 17:38 20,8 C 20,0 C 17,8 C 68 % 1002,0 hPa 0,0 l/m 0 min 0 min 31 W/m 35,4 km/h (5 Bft) 95,92 %
21.10.2020 17:40 20,8 C 20,0 C 17,8 C 68 % 1002,0 hPa 0,0 l/m 0 min 0 min 29 W/m 32,2 km/h (5 Bft) 97,14 %
21.10.2020 17:42 20,8 C 20,0 C 17,8 C 69 % 1002,1 hPa 0,0 l/m 0 min 0 min 42 W/m 32,2 km/h (5 Bft) 97,87 %
21.10.2020 17:44 20,7 C 20,0 C 17,8 C 69 % 1002,1 hPa 0,0 l/m 0 min 0 min 42 W/m 29,0 km/h (5 Bft) 97,87 %
21.10.2020 17:46 20,7 C 20,0 C 17,8 C 69 % 1002,2 hPa 0,0 l/m 0 min 0 min 37 W/m 38,6 km/h (5 Bft) 98,15 %
21.10.2020 17:48 20,6 C 20,0 C 17,8 C 69 % 1002,1 hPa 0,0 l/m 2 min 0 min 47 W/m 32,2 km/h (5 Bft) 97,87 %
21.10.2020 17:50 20,6 C 20,0 C 17,8 C 69 % 1002,1 hPa 0,0 l/m 2 min 0 min 48 W/m 25,7 km/h (4 Bft) 100,00 %
21.10.2020 17:52 20,6 C 20,0 C 17,8 C 69 % 1002,2 hPa 0,0 l/m 2 min 0 min 39 W/m 22,5 km/h (4 Bft) 100,00 %
21.10.2020 17:54 20,6 C 19,4 C 17,2 C 69 % 1002,3 hPa 0,0 l/m 0 min 0 min 25 W/m 38,6 km/h (5 Bft) 100,00 %
21.10.2020 17:56 20,6 C 19,4 C 17,8 C 69 % 1002,2 hPa 0,0 l/m 0 min 0 min 17 W/m 38,6 km/h (5 Bft) 97,96 %
21.10.2020 17:58 20,5 C 19,4 C 17,2 C 69 % 1002,3 hPa 0,0 l/m 0 min 0 min 16 W/m 32,2 km/h (5 Bft) 100,00 %
21.10.2020 18:00 20,5 C 19,4 C 17,2 C 69 % 1002,2 hPa 0,0 l/m 0 min 0 min 16 W/m 29,0 km/h (5 Bft) 97,87 %
21.10.2020 18:02 20,5 C 19,4 C 17,8 C 69 % 1002,2 hPa 0,0 l/m 0 min 0 min 16 W/m 38,6 km/h (5 Bft) 100,00 %
21.10.2020 18:04 20,4 C 19,4 C 17,8 C 69 % 1002,2 hPa 0,0 l/m 0 min 0 min 14 W/m 57,9 km/h (7 Bft) 100,00 %
21.10.2020 18:07 20,4 C 19,4 C 17,2 C 69 % 1002,3 hPa 0,0 l/m 0 min 0 min 14 W/m 54,7 km/h (7 Bft) 98,61 %
21.10.2020 18:08 20,4 C 19,4 C 17,2 C 69 % 1002,3 hPa 0,0 l/m 0 min 0 min 12 W/m 29,0 km/h (5 Bft) 95,83 %
21.10.2020 18:10 20,4 C 19,4 C 17,2 C 70 % 1002,2 hPa 0,0 l/m 0 min 0 min 12 W/m 22,5 km/h (4 Bft) 100,00 %
21.10.2020 18:12 20,4 C 19,4 C 17,2 C 70 % 1002,3 hPa 0,0 l/m 0 min 0 min 12 W/m 41,8 km/h (6 Bft) 100,00 %
21.10.2020 18:14 20,4 C 19,4 C 17,2 C 70 % 1002,2 hPa 0,0 l/m 0 min 0 min 11 W/m 38,6 km/h (5 Bft) 100,00 %
21.10.2020 18:16 20,3 C 19,4 C 17,2 C 70 % 1002,3 hPa 0,0 l/m 0 min 0 min 10 W/m 25,7 km/h (4 Bft) 98,18 %
21.10.2020 18:18 20,3 C 19,4 C 17,2 C 70 % 1002,3 hPa 0,0 l/m 0 min 0 min 9 W/m 51,5 km/h (7 Bft) 100,00 %
21.10.2020 18:20 20,3 C 19,4 C 17,2 C 70 % 1002,3 hPa 0,0 l/m 0 min 0 min 8 W/m 45,1 km/h (6 Bft) 100,00 %
21.10.2020 18:22 20,3 C 19,4 C 17,2 C 70 % 1002,6 hPa 0,0 l/m 0 min 0 min 7 W/m 29,0 km/h (5 Bft) 95,74 %
21.10.2020 18:24 20,3 C 19,4 C 17,2 C 70 % 1002,5 hPa 0,0 l/m 0 min 0 min 6 W/m 32,2 km/h (5 Bft) 100,00 %
21.10.2020 18:26 20,3 C 19,4 C 17,2 C 70 % 1002,2 hPa 0,0 l/m 0 min 0 min 5 W/m 35,4 km/h (5 Bft) 97,83 %
21.10.2020 18:28 20,3 C 19,4 C 17,2 C 70 % 1002,6 hPa 0,0 l/m 0 min 0 min 5 W/m 35,4 km/h (5 Bft) 100,00 %
21.10.2020 18:30 20,2 C 19,4 C 17,2 C 70 % 1002,7 hPa 0,0 l/m 0 min 0 min 1 W/m 38,6 km/h (5 Bft) 100,00 %
21.10.2020 18:32 20,2 C 18,9 C 17,2 C 70 % 1002,6 hPa 0,0 l/m 0 min 0 min 0 W/m 45,1 km/h (6 Bft) 98,00 %
21.10.2020 18:34 20,1 C 18,9 C 17,2 C 70 % 1002,6 hPa 0,0 l/m 0 min 0 min 0 W/m 35,4 km/h (5 Bft) 100,00 %
21.10.2020 18:36 20,1 C 18,9 C 17,2 C 70 % 1002,8 hPa 0,0 l/m 0 min 0 min 0 W/m 35,4 km/h (5 Bft) 100,00 %
21.10.2020 18:38 20,1 C 18,9 C 17,2 C 70 % 1002,8 hPa 0,0 l/m 0 min 0 min 0 W/m 32,2 km/h (5 Bft) 100,00 %
21.10.2020 18:40 20,1 C 18,9 C 17,2 C 70 % 1002,8 hPa 0,0 l/m 0 min 0 min 0 W/m 38,6 km/h (5 Bft) 100,00 %
21.10.2020 18:42 20,1 C 18,9 C 17,2 C 71 % 1002,8 hPa 0,0 l/m 0 min 0 min 0 W/m 25,7 km/h (4 Bft) 100,00 %
21.10.2020 18:44 20,0 C 18,9 C 17,2 C 71 % 1002,8 hPa 0,0 l/m 0 min 0 min 0 W/m 22,5 km/h (4 Bft) 100,00 %
21.10.2020 18:46 20,0 C 18,9 C 17,2 C 71 % 1003,0 hPa 0,0 l/m 0 min 0 min 0 W/m 38,6 km/h (5 Bft) 100,00 %
21.10.2020 18:48 20,0 C 18,9 C 17,2 C 71 % 1002,9 hPa 0,0 l/m 0 min 0 min 0 W/m 38,6 km/h (5 Bft) 95,74 %
21.10.2020 18:50 20,0 C 18,9 C 16,7 C 71 % 1002,9 hPa 0,0 l/m 0 min 0 min 0 W/m 29,0 km/h (5 Bft) 97,92 %
21.10.2020 18:52 20,0 C 18,9 C 16,7 C 71 % 1002,8 hPa 0,0 l/m 0 min 0 min 0 W/m 25,7 km/h (4 Bft) 100,00 %
21.10.2020 18:54 19,9 C 18,9 C 16,7 C 71 % 1002,8 hPa 0,0 l/m 0 min 0 min 0 W/m 19,3 km/h (3 Bft) 100,00 %
21.10.2020 18:56 19,9 C 18,9 C 16,7 C 71 % 1002,8 hPa 0,0 l/m 0 min 0 min 0 W/m 19,3 km/h (3 Bft) 96,36 %
21.10.2020 18:58 19,9 C 18,9 C 16,7 C 71 % 1002,9 hPa 0,0 l/m 0 min 0 min 0 W/m 48,3 km/h (6 Bft) 95,83 %
21.10.2020 19:00 19,9 C 18,9 C 16,7 C 71 % 1003,0 hPa 0,0 l/m 0 min 0 min 0 W/m 38,6 km/h (5 Bft) 97,96 %
21.10.2020 19:02 19,8 C 18,9 C 16,7 C 72 % 1002,9 hPa 0,0 l/m 0 min 0 min 0 W/m 38,6 km/h (5 Bft) 97,37 %
21.10.2020 19:04 19,8 C 18,9 C 16,7 C 72 % 1003,0 hPa 0,0 l/m 0 min 0 min 0 W/m 22,5 km/h (4 Bft) 100,00 %
21.10.2020 19:06 19,8 C 18,9 C 16,7 C 72 % 1003,1 hPa 0,0 l/m 0 min 0 min 0 W/m 35,4 km/h (5 Bft) 95,83 %
21.10.2020 19:08 19,8 C 18,9 C 16,7 C 72 % 1003,3 hPa 0,0 l/m 0 min 0 min 0 W/m 35,4 km/h (5 Bft) 95,74 %
21.10.2020 19:10 19,8 C 18,9 C 16,7 C 72 % 1003,3 hPa 0,0 l/m 0 min 0 min 0 W/m 32,2 km/h (5 Bft) 97,87 %
21.10.2020 19:12 19,7 C 18,3 C 16,7 C 72 % 1003,3 hPa 0,0 l/m 0 min 0 min 0 W/m 16,1 km/h (3 Bft) 97,83 %
21.10.2020 19:14 19,7 C 18,3 C 16,7 C 72 % 1003,4 hPa 0,0 l/m 0 min 0 min 0 W/m 19,3 km/h (3 Bft) 91,49 %
21.10.2020 19:16 19,6 C 18,3 C 16,7 C 72 % 1003,4 hPa 0,0 l/m 0 min 0 min 0 W/m 25,7 km/h (4 Bft) 97,87 %
21.10.2020 19:18 19,6 C 18,3 C 16,7 C 72 % 1003,4 hPa 0,0 l/m 0 min 0 min 0 W/m 29,0 km/h (5 Bft) 95,45 %
21.10.2020 19:20 19,6 C 18,3 C 16,7 C 72 % 1003,4 hPa 0,0 l/m 0 min 0 min 0 W/m 22,5 km/h (4 Bft) 94,00 %
21.10.2020 19:22 19,5 C 18,3 C 16,7 C 72 % 1003,4 hPa 0,0 l/m 0 min 0 min 0 W/m 35,4 km/h (5 Bft) 95,74 %
21.10.2020 19:24 19,5 C 18,3 C 16,7 C 72 % 1003,5 hPa 0,0 l/m 0 min 0 min 0 W/m 35,4 km/h (5 Bft) 94,34 %
21.10.2020 19:26 19,5 C 18,3 C 16,7 C 73 % 1003,5 hPa 0,0 l/m 0 min 0 min 0 W/m 29,0 km/h (5 Bft) 94,59 %
21.10.2020 19:28 19,5 C 18,3 C 16,7 C 73 % 1003,6 hPa 0,0 l/m 0 min 0 min 0 W/m 22,5 km/h (4 Bft) 96,00 %
21.10.2020 19:30 19,5 C 18,3 C 16,7 C 73 % 1003,6 hPa 0,0 l/m 0 min 0 min 0 W/m 38,6 km/h (5 Bft) 95,74 %
21.10.2020 19:32 19,4 C 18,3 C 16,1 C 73 % 1003,7 hPa 0,0 l/m 0 min 0 min 0 W/m 25,7 km/h (4 Bft) 52,00 %
21.10.2020 19:34 19,4 C 18,3 C 16,7 C 73 % 1003,8 hPa 0,0 l/m 0 min 0 min 0 W/m 19,3 km/h (3 Bft) 94,74 %
21.10.2020 19:36 19,4 C 18,3 C 16,7 C 73 % 1003,7 hPa 0,0 l/m 0 min 0 min 0 W/m 29,0 km/h (5 Bft) 95,92 %
21.10.2020 19:38 19,4 C 18,3 C 16,7 C 73 % 1003,8 hPa 0,0 l/m 0 min 0 min 0 W/m 35,4 km/h (5 Bft) 95,74 %
21.10.2020 19:40 19,3 C 18,3 C 16,7 C 73 % 1003,8 hPa 0,0 l/m 0 min 0 min 0 W/m 45,1 km/h (6 Bft) 95,74 %
21.10.2020 19:42 19,3 C 18,3 C 16,7 C 73 % 1003,8 hPa 0,0 l/m 0 min 0 min 0 W/m 38,6 km/h (5 Bft) 95,74 %
21.10.2020 19:44 19,4 C 18,3 C 16,7 C 73 % 1003,8 hPa 0,0 l/m 0 min 0 min 0 W/m 29,0 km/h (5 Bft) 95,74 %
21.10.2020 19:46 19,3 C 18,3 C 16,7 C 73 % 1003,8 hPa 0,0 l/m 0 min 0 min 0 W/m 22,5 km/h (4 Bft) 95,74 %
21.10.2020 19:48 19,3 C 18,3 C 16,7 C 73 % 1003,9 hPa 0,0 l/m 0 min 0 min 0 W/m 32,2 km/h (5 Bft) 93,48 %
21.10.2020 19:50 19,3 C 18,3 C 16,1 C 73 % 1004,0 hPa 0,0 l/m 0 min 0 min 0 W/m 16,1 km/h (3 Bft) 93,62 %
21.10.2020 19:52 19,3 C 18,3 C 16,1 C 74 % 1004,0 hPa 0,0 l/m 0 min 0 min 0 W/m 22,5 km/h (4 Bft) 97,87 %
21.10.2020 19:54 19,3 C 18,3 C 16,1 C 73 % 1004,0 hPa 0,0 l/m 0 min 0 min 0 W/m 32,2 km/h (5 Bft) 100,00 %
21.10.2020 19:56 19,2 C 18,3 C 16,1 C 74 % 1004,1 hPa 0,0 l/m 0 min 0 min 0 W/m 41,8 km/h (6 Bft) 100,00 %
21.10.2020 19:58 19,2 C 18,3 C 16,1 C 74 % 1004,2 hPa 0,0 l/m 0 min 0 min 0 W/m 22,5 km/h (4 Bft) 100,00 %
21.10.2020 20:00 19,1 C 18,3 C 16,1 C 74 % 1004,2 hPa 0,0 l/m 0 min 0 min 0 W/m 38,6 km/h (5 Bft) 98,00 %
21.10.2020 20:02 19,1 C 18,3 C 16,1 C 74 % 1004,2 hPa 0,0 l/m 0 min 0 min 0 W/m 19,3 km/h (3 Bft) 97,87 %
21.10.2020 20:04 19,1 C 18,3 C 16,1 C 74 % 1004,2 hPa 0,0 l/m 0 min 0 min 0 W/m 29,0 km/h (5 Bft) 100,00 %
21.10.2020 20:06 19,1 C 18,3 C 16,1 C 74 % 1004,2 hPa 0,0 l/m 0 min 0 min 0 W/m 29,0 km/h (5 Bft) 97,87 %
21.10.2020 20:08 19,1 C 18,3 C 16,1 C 74 % 1004,4 hPa 0,0 l/m 0 min 0 min 0 W/m 32,2 km/h (5 Bft) 100,00 %
21.10.2020 20:10 19,1 C 18,3 C 16,1 C 74 % 1004,3 hPa 0,0 l/m 0 min 0 min 0 W/m 29,0 km/h (5 Bft) 95,65 %
21.10.2020 20:12 19,1 C 17,8 C 16,1 C 74 % 1004,3 hPa 0,0 l/m 0 min 0 min 0 W/m 19,3 km/h (3 Bft) 97,87 %
21.10.2020 20:14 19,0 C 17,8 C 16,1 C 74 % 1004,3 hPa 0,0 l/m 0 min 0 min 0 W/m 16,1 km/h (3 Bft) 93,62 %
21.10.2020 20:16 19,0 C 17,8 C 16,1 C 75 % 1004,3 hPa 0,0 l/m 0 min 0 min 0 W/m 32,2 km/h (5 Bft) 95,74 %
21.10.2020 20:18 19,0 C 17,8 C 16,1 C 75 % 1004,3 hPa 0,0 l/m 0 min 0 min 0 W/m 25,7 km/h (4 Bft) 97,87 %
21.10.2020 20:20 19,0 C 17,8 C 16,1 C 75 % 1004,4 hPa 0,0 l/m 0 min 0 min 0 W/m 32,2 km/h (5 Bft) 97,83 %
21.10.2020 20:22 19,0 C 17,8 C 16,1 C 75 % 1004,5 hPa 0,0 l/m 0 min 0 min 0 W/m 45,1 km/h (6 Bft) 97,87 %
21.10.2020 20:24 18,9 C 17,8 C 16,1 C 75 % 1004,5 hPa 0,0 l/m 0 min 0 min 0 W/m 35,4 km/h (5 Bft) 95,74 %
21.10.2020 20:26 18,9 C 18,3 C 16,1 C 75 % 1004,4 hPa 0,0 l/m 0 min 0 min 0 W/m 29,0 km/h (5 Bft) 97,87 %
21.10.2020 20:28 18,9 C 17,8 C 16,1 C 75 % 1004,4 hPa 0,0 l/m 0 min 0 min 0 W/m 35,4 km/h (5 Bft) 97,87 %
21.10.2020 20:30 18,9 C 17,8 C 16,1 C 75 % 1004,5 hPa 0,0 l/m 0 min 0 min 0 W/m 29,0 km/h (5 Bft) 97,87 %
21.10.2020 20:32 18,9 C 17,8 C 16,1 C 75 % 1004,5 hPa 0,0 l/m 0 min 0 min 0 W/m 19,3 km/h (3 Bft) 97,83 %
21.10.2020 20:34 18,9 C 17,8 C 16,1 C 75 % 1004,6 hPa 0,0 l/m 0 min 0 min 0 W/m 29,0 km/h (5 Bft) 97,87 %
21.10.2020 20:36 18,9 C 17,8 C 16,1 C 75 % 1004,5 hPa 0,0 l/m 0 min 0 min 0 W/m 32,2 km/h (5 Bft) 97,87 %
21.10.2020 20:38 18,9 C 17,8 C 16,1 C 75 % 1004,5 hPa 0,0 l/m 0 min 0 min 0 W/m 25,7 km/h (4 Bft) 97,87 %
21.10.2020 20:40 18,9 C 17,8 C 16,1 C 75 % 1004,5 hPa 0,0 l/m 0 min 0 min 0 W/m 29,0 km/h (5 Bft) 97,87 %
21.10.2020 20:42 18,9 C 17,8 C 16,1 C 75 % 1004,6 hPa 0,0 l/m 0 min 0 min 0 W/m 19,3 km/h (3 Bft) 95,74 %
21.10.2020 20:44 18,9 C 17,8 C 16,1 C 76 % 1004,6 hPa 0,0 l/m 0 min 0 min 0 W/m 25,7 km/h (4 Bft) 97,83 %
21.10.2020 20:46 18,9 C 18,3 C 16,1 C 76 % 1004,7 hPa 0,0 l/m 0 min 0 min 0 W/m 22,5 km/h (4 Bft) 97,87 %
21.10.2020 20:48 18,9 C 18,3 C 16,1 C 76 % 1004,8 hPa 0,0 l/m 0 min 0 min 0 W/m 38,6 km/h (5 Bft) 100,00 %
21.10.2020 20:50 18,9 C 18,3 C 16,7 C 76 % 1004,8 hPa 0,0 l/m 0 min 0 min 0 W/m 32,2 km/h (5 Bft) 97,87 %
21.10.2020 20:52 18,9 C 18,3 C 16,7 C 76 % 1004,8 hPa 0,0 l/m 0 min 0 min 0 W/m 51,5 km/h (7 Bft) 95,74 %
21.10.2020 20:54 18,9 C 18,3 C 16,7 C 76 % 1004,7 hPa 0,0 l/m 0 min 0 min 0 W/m 41,8 km/h (6 Bft) 97,87 %
21.10.2020 20:56 18,9 C 18,3 C 16,1 C 76 % 1004,8 hPa 0,0 l/m 0 min 0 min 0 W/m 25,7 km/h (4 Bft) 97,83 %
21.10.2020 20:58 18,9 C 18,3 C 16,1 C 76 % 1004,9 hPa 0,0 l/m 0 min 0 min 0 W/m 45,1 km/h (6 Bft) 97,87 %
21.10.2020 21:00 18,9 C 17,8 C 16,1 C 76 % 1004,9 hPa 0,0 l/m 0 min 0 min 0 W/m 22,5 km/h (4 Bft) 97,87 %
21.10.2020 21:02 18,9 C 18,3 C 16,1 C 76 % 1005,0 hPa 0,0 l/m 0 min 0 min 0 W/m 38,6 km/h (5 Bft) 95,74 %
21.10.2020 21:04 18,9 C 18,3 C 16,1 C 76 % 1005,1 hPa 0,0 l/m 0 min 0 min 0 W/m 35,4 km/h (5 Bft) 97,87 %
21.10.2020 21:06 18,9 C 18,3 C 16,7 C 76 % 1005,0 hPa 0,0 l/m 0 min 0 min 0 W/m 48,3 km/h (6 Bft) 97,87 %
21.10.2020 21:08 18,9 C 18,3 C 16,1 C 76 % 1005,0 hPa 0,0 l/m 0 min 0 min 0 W/m 38,6 km/h (5 Bft) 97,83 %
21.10.2020 21:10 18,9 C 17,8 C 16,1 C 76 % 1005,0 hPa 0,0 l/m 0 min 0 min 0 W/m 29,0 km/h (5 Bft) 97,87 %
21.10.2020 21:12 18,9 C 17,8 C 16,1 C 76 % 1004,9 hPa 0,0 l/m 0 min 0 min 0 W/m 38,6 km/h (5 Bft) 97,87 %
21.10.2020 21:14 18,9 C 17,8 C 16,1 C 76 % 1005,1 hPa 0,0 l/m 0 min 0 min 0 W/m 29,0 km/h (5 Bft) 100,00 %
21.10.2020 21:16 18,9 C 17,8 C 16,1 C 76 % 1005,2 hPa 0,0 l/m 0 min 0 min 0 W/m 35,4 km/h (5 Bft) 100,00 %
21.10.2020 21:18 18,9 C 18,3 C 16,1 C 76 % 1005,2 hPa 0,0 l/m 0 min 0 min 0 W/m 45,1 km/h (6 Bft) 97,87 %
21.10.2020 21:20 18,9 C 17,8 C 16,1 C 76 % 1005,3 hPa 0,0 l/m 0 min 0 min 0 W/m 25,7 km/h (4 Bft) 97,83 %
21.10.2020 21:22 18,9 C 18,3 C 16,7 C 75 % 1005,3 hPa 0,0 l/m 0 min 0 min 0 W/m 48,3 km/h (6 Bft) 100,00 %
21.10.2020 21:24 18,9 C 18,3 C 16,1 C 76 % 1005,3 hPa 0,0 l/m 0 min 0 min 0 W/m 29,0 km/h (5 Bft) 100,00 %
21.10.2020 21:26 18,9 C 18,3 C 16,1 C 76 % 1005,4 hPa 0,0 l/m 0 min 0 min 0 W/m 35,4 km/h (5 Bft) 100,00 %
21.10.2020 21:28 18,9 C 18,3 C 16,1 C 76 % 1005,5 hPa 0,0 l/m 0 min 0 min 0 W/m 48,3 km/h (6 Bft) 97,87 %
21.10.2020 21:30 18,9 C 17,8 C 16,1 C 76 % 1005,5 hPa 0,0 l/m 0 min 0 min 0 W/m 32,2 km/h (5 Bft) 97,87 %
21.10.2020 21:32 18,9 C 17,8 C 16,1 C 76 % 1005,5 hPa 0,0 l/m 0 min 0 min 0 W/m 29,0 km/h (5 Bft) 97,83 %
21.10.2020 21:34 18,9 C 17,8 C 16,1 C 75 % 1005,6 hPa 0,0 l/m 0 min 0 min 0 W/m 29,0 km/h (5 Bft) 97,87 %
21.10.2020 21:36 18,9 C 17,8 C 16,1 C 75 % 1005,6 hPa 0,0 l/m 0 min 0 min 0 W/m 35,4 km/h (5 Bft) 100,00 %
21.10.2020 21:38 18,9 C 17,8 C 16,1 C 75 % 1005,7 hPa 0,0 l/m 0 min 0 min 0 W/m 29,0 km/h (5 Bft) 100,00 %
21.10.2020 21:40 18,9 C 17,8 C 16,1 C 75 % 1005,7 hPa 0,0 l/m 0 min 0 min 0 W/m 22,5 km/h (4 Bft) 100,00 %
21.10.2020 21:42 18,9 C 17,8 C 16,1 C 76 % 1005,7 hPa 0,0 l/m 0 min 0 min 0 W/m 22,5 km/h (4 Bft) 100,00 %
21.10.2020 21:44 18,8 C 17,8 C 16,1 C 76 % 1005,7 hPa 0,0 l/m 0 min 0 min 0 W/m 22,5 km/h (4 Bft) 97,87 %
21.10.2020 21:46 18,8 C 17,8 C 16,1 C 76 % 1005,7 hPa 0,0 l/m 0 min 0 min 0 W/m 29,0 km/h (5 Bft) 97,87 %
21.10.2020 21:48 18,8 C 17,8 C 16,1 C 76 % 1005,8 hPa 0,0 l/m 0 min 0 min 0 W/m 29,0 km/h (5 Bft) 95,74 %
21.10.2020 21:50 18,8 C 17,8 C 16,1 C 76 % 1005,8 hPa 0,0 l/m 0 min 0 min 0 W/m 19,3 km/h (3 Bft) 95,74 %
21.10.2020 21:52 18,7 C 17,8 C 15,6 C 76 % 1005,8 hPa 0,0 l/m 0 min 0 min 0 W/m 16,1 km/h (3 Bft) 95,74 %
21.10.2020 21:54 18,7 C 17,2 C 15,6 C 76 % 1006,0 hPa 0,0 l/m 0 min 0 min 0 W/m 19,3 km/h (3 Bft) 95,65 %
21.10.2020 21:56 18,7 C 17,8 C 15,6 C 76 % 1005,9 hPa 0,0 l/m 0 min 0 min 0 W/m 32,2 km/h (5 Bft) 95,74 %
21.10.2020 21:58 18,6 C 17,2 C 15,6 C 76 % 1006,0 hPa 0,0 l/m 0 min 0 min 0 W/m 22,5 km/h (4 Bft) 95,74 %
21.10.2020 22:00 18,6 C 17,2 C 15,6 C 77 % 1006,0 hPa 0,0 l/m 0 min 0 min 0 W/m 22,5 km/h (4 Bft) 95,74 %
21.10.2020 22:02 18,6 C 17,2 C 15,6 C 77 % 1006,0 hPa 0,0 l/m 0 min 0 min 0 W/m 32,2 km/h (5 Bft) 93,62 %
21.10.2020 22:04 18,5 C 17,2 C 15,6 C 77 % 1006,1 hPa 0,0 l/m 0 min 0 min 0 W/m 25,7 km/h (4 Bft) 95,74 %
21.10.2020 22:06 18,5 C 17,2 C 15,6 C 77 % 1006,0 hPa 0,0 l/m 0 min 0 min 0 W/m 25,7 km/h (4 Bft) 91,30 %
21.10.2020 22:08 18,5 C 17,2 C 15,6 C 77 % 1006,2 hPa 0,0 l/m 0 min 0 min 0 W/m 19,3 km/h (3 Bft) 95,74 %
21.10.2020 22:10 18,5 C 17,2 C 15,6 C 77 % 1006,2 hPa 0,0 l/m 0 min 0 min 0 W/m 22,5 km/h (4 Bft) 95,74 %
21.10.2020 22:12 18,4 C 17,2 C 15,6 C 77 % 1006,2 hPa 0,0 l/m 0 min 0 min 0 W/m 22,5 km/h (4 Bft) 95,74 %
21.10.2020 22:14 18,4 C 17,2 C 15,6 C 77 % 1006,2 hPa 0,0 l/m 0 min 0 min 0 W/m 35,4 km/h (5 Bft) 95,74 %
21.10.2020 22:16 18,4 C 17,2 C 15,6 C 77 % 1006,3 hPa 0,0 l/m 0 min 0 min 0 W/m 29,0 km/h (5 Bft) 95,74 %
21.10.2020 22:18 18,4 C 17,2 C 15,6 C 78 % 1006,3 hPa 0,0 l/m 0 min 0 min 0 W/m 12,9 km/h (3 Bft) 95,65 %
21.10.2020 22:20 18,4 C 17,2 C 15,6 C 78 % 1006,3 hPa 0,0 l/m 0 min 0 min 0 W/m 32,2 km/h (5 Bft) 93,62 %
21.10.2020 22:22 18,4 C 17,2 C 15,6 C 78 % 1006,3 hPa 0,0 l/m 0 min 0 min 0 W/m 29,0 km/h (5 Bft) 95,74 %
21.10.2020 22:24 18,3 C 17,2 C 15,6 C 78 % 1006,3 hPa 0,0 l/m 0 min 0 min 0 W/m 12,9 km/h (3 Bft) 93,62 %
21.10.2020 22:26 18,3 C 17,2 C 15,6 C 78 % 1006,4 hPa 0,0 l/m 0 min 0 min 0 W/m 29,0 km/h (5 Bft) 93,62 %
21.10.2020 22:28 18,3 C 17,2 C 15,6 C 78 % 1006,4 hPa 0,0 l/m 0 min 0 min 0 W/m 25,7 km/h (4 Bft) 95,74 %
21.10.2020 22:30 18,3 C 17,2 C 15,6 C 78 % 1006,4 hPa 0,0 l/m 0 min 0 min 0 W/m 22,5 km/h (4 Bft) 95,65 %
21.10.2020 22:32 18,3 C 17,2 C 15,6 C 78 % 1006,5 hPa 0,0 l/m 0 min 0 min 0 W/m 25,7 km/h (4 Bft) 97,87 %
21.10.2020 22:34 18,2 C 17,2 C 15,6 C 78 % 1006,5 hPa 0,0 l/m 0 min 0 min 0 W/m 19,3 km/h (3 Bft) 100,00 %
21.10.2020 22:36 18,2 C 17,2 C 15,6 C 79 % 1006,5 hPa 0,0 l/m 0 min 0 min 0 W/m 41,8 km/h (6 Bft) 100,00 %
21.10.2020 22:38 18,2 C 17,2 C 15,6 C 79 % 1006,6 hPa 0,0 l/m 0 min 0 min 0 W/m 19,3 km/h (3 Bft) 100,00 %
21.10.2020 22:40 18,1 C 17,2 C 15,6 C 79 % 1006,6 hPa 0,0 l/m 0 min 0 min 0 W/m 19,3 km/h (3 Bft) 100,00 %
21.10.2020 22:42 18,1 C 17,2 C 15,6 C 79 % 1006,6 hPa 0,0 l/m 0 min 0 min 0 W/m 25,7 km/h (4 Bft) 97,87 %
21.10.2020 22:44 18,1 C 17,2 C 15,6 C 79 % 1006,7 hPa 0,0 l/m 0 min 0 min 0 W/m 22,5 km/h (4 Bft) 100,00 %
21.10.2020 22:46 18,1 C 17,2 C 15,6 C 79 % 1006,7 hPa 0,0 l/m 0 min 0 min 0 W/m 25,7 km/h (4 Bft) 100,00 %
21.10.2020 22:48 18,1 C 17,2 C 15,6 C 79 % 1006,7 hPa 0,0 l/m 0 min 0 min 0 W/m 22,5 km/h (4 Bft) 100,00 %
21.10.2020 22:50 18,1 C 17,2 C 15,6 C 79 % 1006,9 hPa 0,0 l/m 0 min 0 min 0 W/m 25,7 km/h (4 Bft) 100,00 %
21.10.2020 22:52 18,1 C 17,2 C 15,6 C 79 % 1006,8 hPa 0,0 l/m 0 min 0 min 0 W/m 35,4 km/h (5 Bft) 100,00 %
21.10.2020 22:54 18,1 C 17,2 C 15,6 C 79 % 1006,8 hPa 0,0 l/m 0 min 0 min 0 W/m 29,0 km/h (5 Bft) 100,00 %
21.10.2020 22:56 18,1 C 17,2 C 15,6 C 79 % 1006,8 hPa 0,0 l/m 0 min 0 min 0 W/m 16,1 km/h (3 Bft) 97,87 %
21.10.2020 22:58 18,1 C 17,2 C 15,6 C 79 % 1006,9 hPa 0,0 l/m 0 min 0 min 0 W/m 25,7 km/h (4 Bft) 100,00 %
21.10.2020 23:00 18,0 C 17,2 C 15,0 C 79 % 1006,9 hPa 0,0 l/m 0 min 0 min 0 W/m 32,2 km/h (5 Bft) 100,00 %
21.10.2020 23:02 18,0 C 17,2 C 15,6 C 79 % 1007,0 hPa 0,0 l/m 0 min 0 min 0 W/m 29,0 km/h (5 Bft) 100,00 %
21.10.2020 23:04 18,0 C 17,2 C 15,6 C 79 % 1007,1 hPa 0,0 l/m 0 min 0 min 0 W/m 19,3 km/h (3 Bft) 100,00 %
21.10.2020 23:06 18,0 C 17,2 C 15,6 C 80 % 1007,1 hPa 0,0 l/m 0 min 0 min 0 W/m 22,5 km/h (4 Bft) 100,00 %
21.10.2020 23:08 18,0 C 17,2 C 15,6 C 80 % 1007,0 hPa 0,0 l/m 0 min 0 min 0 W/m 29,0 km/h (5 Bft) 100,00 %
21.10.2020 23:10 18,0 C 17,2 C 15,6 C 80 % 1007,1 hPa 0,0 l/m 0 min 0 min 0 W/m 22,5 km/h (4 Bft) 100,00 %
21.10.2020 23:12 18,0 C 17,2 C 15,6 C 80 % 1007,1 hPa 0,0 l/m 0 min 0 min 0 W/m 6,4 km/h (2 Bft) 100,00 %
21.10.2020 23:14 18,0 C 17,2 C 15,6 C 80 % 1007,1 hPa 0,0 l/m 0 min 0 min 0 W/m 25,7 km/h (4 Bft) 100,00 %
21.10.2020 23:16 18,0 C 17,2 C 15,6 C 80 % 1007,1 hPa 0,0 l/m 0 min 0 min 0 W/m 22,5 km/h (4 Bft) 98,08 %
21.10.2020 23:18 18,0 C 17,2 C 15,6 C 80 % 1007,2 hPa 0,0 l/m 0 min 0 min 0 W/m 19,3 km/h (3 Bft) 100,00 %
21.10.2020 23:20 18,0 C 17,2 C 15,6 C 80 % 1007,2 hPa 0,0 l/m 0 min 0 min 0 W/m 19,3 km/h (3 Bft) 100,00 %
21.10.2020 23:22 18,0 C 17,2 C 15,6 C 81 % 1007,2 hPa 0,0 l/m 0 min 0 min 0 W/m 19,3 km/h (3 Bft) 100,00 %
21.10.2020 23:24 18,0 C 17,2 C 15,6 C 81 % 1007,2 hPa 0,0 l/m 0 min 0 min 0 W/m 16,1 km/h (3 Bft) 100,00 %
21.10.2020 23:26 18,0 C 17,2 C 15,6 C 81 % 1007,3 hPa 0,0 l/m 0 min 0 min 0 W/m 19,3 km/h (3 Bft) 100,00 %
21.10.2020 23:28 18,0 C 17,2 C 15,6 C 81 % 1007,3 hPa 0,0 l/m 0 min 0 min 0 W/m 25,7 km/h (4 Bft) 100,00 %
21.10.2020 23:30 18,0 C 17,2 C 15,6 C 81 % 1007,3 hPa 0,0 l/m 0 min 0 min 0 W/m 22,5 km/h (4 Bft) 100,00 %
21.10.2020 23:32 18,0 C 17,2 C 15,6 C 81 % 1007,4 hPa 0,0 l/m 0 min 0 min 0 W/m 19,3 km/h (3 Bft) 100,00 %
21.10.2020 23:34 18,0 C 17,2 C 15,6 C 81 % 1007,5 hPa 0,0 l/m 0 min 0 min 0 W/m 19,3 km/h (3 Bft) 100,00 %
21.10.2020 23:36 18,0 C 17,2 C 15,6 C 81 % 1007,4 hPa 0,0 l/m 0 min 0 min 0 W/m 19,3 km/h (3 Bft) 100,00 %
21.10.2020 23:38 18,0 C 17,2 C 15,6 C 81 % 1007,4 hPa 0,0 l/m 0 min 0 min 0 W/m 16,1 km/h (3 Bft) 100,00 %
21.10.2020 23:40 18,0 C 17,2 C 15,6 C 81 % 1007,4 hPa 0,0 l/m 0 min 0 min 0 W/m 19,3 km/h (3 Bft) 97,87 %
21.10.2020 23:42 18,1 C 17,2 C 15,6 C 81 % 1007,5 hPa 0,0 l/m 0 min 0 min 0 W/m 41,8 km/h (6 Bft) 100,00 %
21.10.2020 23:44 18,1 C 17,2 C 15,6 C 81 % 1007,5 hPa 0,0 l/m 0 min 0 min 0 W/m 22,5 km/h (4 Bft) 97,87 %
21.10.2020 23:46 18,1 C 17,2 C 15,6 C 81 % 1007,5 hPa 0,0 l/m 0 min 0 min 0 W/m 22,5 km/h (4 Bft) 97,87 %
21.10.2020 23:48 18,1 C 17,2 C 15,6 C 81 % 1007,6 hPa 0,0 l/m 0 min 0 min 0 W/m 25,7 km/h (4 Bft) 97,87 %
21.10.2020 23:50 18,1 C 17,2 C 15,6 C 81 % 1007,5 hPa 0,0 l/m 0 min 0 min 0 W/m 19,3 km/h (3 Bft) 95,65 %
21.10.2020 23:52 18,1 C 17,2 C 15,6 C 81 % 1007,7 hPa 0,0 l/m 0 min 2 min 0 W/m 16,1 km/h (3 Bft) 97,87 %
21.10.2020 23:54 18,1 C 17,2 C 15,6 C 81 % 1007,6 hPa 0,0 l/m 0 min 0 min 0 W/m 19,3 km/h (3 Bft) 97,87 %
21.10.2020 23:56 18,2 C 17,2 C 15,6 C 81 % 1007,7 hPa 0,0 l/m 0 min 0 min 0 W/m 29,0 km/h (5 Bft) 97,87 %
21.10.2020 23:58 18,2 C 17,2 C 15,6 C 81 % 1007,5 hPa 0,0 l/m 0 min 0 min 0 W/m 16,1 km/h (3 Bft) 97,87 %
_ Min-Zeit 07:46 08:16 06:24 17:04 15:16 - - - - 03:22 19:32
Minimum _ 11,4 C 10,0 C 9,5 C 65 % 1001,4 hPa - - - - 0,0 km/h (0 Bft) 52,00 %
_ Max-Zeit 15:28 14:50 16:38 02:02 00:00 00:04 14:18 00:08 14:20 15:14 00:00
Maximum _ 21,5 C 24,4 C 18,9 C 99 % 1008,8 hPa 0,2 l/m 2 min 4 min 497 W/m 57,9 km/h
O-SO (7 Bft)
100,00 %
Durchschnitt _ 15,0 C 14,5 C 12,8 C 88 % 1004,7 hPa #4,6 l/m #1:56 h #8:02 h 109 W/m 21,1 km/h (4 Bft) 97,45 %
© 2020 W. Hausmann